<?xml version="1.0" encoding="UTF-8" standalone="no" ?>
<gpx xmlns="http://www.topografix.com/GPX/1/1" xmlns:xsi="http://www.w3.org/2001/XMLSchema-instance" xsi:schemaLocation="http://www.topografix.com/GPX/1/1 http://www.topografix.com/GPX/1/1/gpx.xsd" version="1.1" creator="VisuGPX - https://www.visugpx.com">
  <metadata>
    <name>VOK ste-foy-de-peyrolieres-circuit-du-lac-de-parayre_9.3 km</name>
    <desc><![CDATA[Total: 9.3km]]></desc>
  </metadata>
  <trk>
    <name><![CDATA[Freestyle]]></name>
    <desc><![CDATA[Total: 9.3km]]></desc>
    <trkseg>
      <trkpt lat="43.49203" lon="1.14478">
        <ele>266.76</ele>
        <time>2019-10-30T12:54:47Z</time>
      </trkpt>
      <trkpt lat="43.49191" lon="1.14485">
        <ele>266.47132178729</ele>
        <time>2019-10-30T12:54:57Z</time>
      </trkpt>
      <trkpt lat="43.49175" lon="1.14499">
        <ele>265.96229242021</ele>
        <time>2019-10-30T12:55:13Z</time>
      </trkpt>
      <trkpt lat="43.49159" lon="1.1449">
        <ele>265.34</ele>
        <time>2019-10-30T12:55:26Z</time>
      </trkpt>
      <trkpt lat="43.49117" lon="1.14437">
        <ele>261.82</ele>
        <time>2019-10-30T12:56:12Z</time>
      </trkpt>
      <trkpt lat="43.49026" lon="1.14448">
        <ele>254.02739057388</ele>
        <time>2019-10-30T12:57:25Z</time>
      </trkpt>
      <trkpt lat="43.49022" lon="1.14447">
        <ele>253.63544912036</ele>
        <time>2019-10-30T12:57:29Z</time>
      </trkpt>
      <trkpt lat="43.49017" lon="1.14444">
        <ele>253.1465724241</ele>
        <time>2019-10-30T12:57:33Z</time>
      </trkpt>
      <trkpt lat="43.49013" lon="1.14442">
        <ele>252.76122721482</ele>
        <time>2019-10-30T12:57:36Z</time>
      </trkpt>
      <trkpt lat="43.49008" lon="1.14438">
        <ele>252.187295259</ele>
        <time>2019-10-30T12:57:41Z</time>
      </trkpt>
      <trkpt lat="43.49001" lon="1.14432">
        <ele>251.5120713283</ele>
        <time>2019-10-30T12:57:47Z</time>
      </trkpt>
      <trkpt lat="43.4899" lon="1.14419">
        <ele>250.22</ele>
        <time>2019-10-30T12:57:59Z</time>
      </trkpt>
      <trkpt lat="43.48986" lon="1.14414">
        <ele>249.74171491804</ele>
        <time>2019-10-30T12:58:04Z</time>
      </trkpt>
      <trkpt lat="43.48973" lon="1.14403">
        <ele>248.42624079929</ele>
        <time>2019-10-30T12:58:16Z</time>
      </trkpt>
      <trkpt lat="43.48967" lon="1.14399">
        <ele>247.9403104276</ele>
        <time>2019-10-30T12:58:21Z</time>
      </trkpt>
      <trkpt lat="43.48965" lon="1.14397">
        <ele>247.77918089141</ele>
        <time>2019-10-30T12:58:23Z</time>
      </trkpt>
      <trkpt lat="43.48961" lon="1.14395">
        <ele>247.46861118845</ele>
        <time>2019-10-30T12:58:26Z</time>
      </trkpt>
      <trkpt lat="43.4895" lon="1.14392">
        <ele>246.68251406901</ele>
        <time>2019-10-30T12:58:35Z</time>
      </trkpt>
      <trkpt lat="43.48948" lon="1.14391">
        <ele>246.50140383726</ele>
        <time>2019-10-30T12:58:37Z</time>
      </trkpt>
      <trkpt lat="43.48943" lon="1.14388">
        <ele>246.18640628107</ele>
        <time>2019-10-30T12:58:42Z</time>
      </trkpt>
      <trkpt lat="43.4894" lon="1.14387">
        <ele>246.03081083863</ele>
        <time>2019-10-30T12:58:44Z</time>
      </trkpt>
      <trkpt lat="43.48937" lon="1.14386">
        <ele>245.87378941464</ele>
        <time>2019-10-30T12:58:46Z</time>
      </trkpt>
      <trkpt lat="43.48927" lon="1.14388">
        <ele>245.42340017272</ele>
        <time>2019-10-30T12:58:54Z</time>
      </trkpt>
      <trkpt lat="43.4892" lon="1.14387">
        <ele>245.19</ele>
        <time>2019-10-30T12:59:00Z</time>
      </trkpt>
      <trkpt lat="43.48909" lon="1.14389">
        <ele>244.96836968893</ele>
        <time>2019-10-30T12:59:09Z</time>
      </trkpt>
      <trkpt lat="43.48906" lon="1.14388">
        <ele>244.93544292686</ele>
        <time>2019-10-30T12:59:11Z</time>
      </trkpt>
      <trkpt lat="43.48898" lon="1.14386">
        <ele>244.91352508624</ele>
        <time>2019-10-30T12:59:18Z</time>
      </trkpt>
      <trkpt lat="43.48894" lon="1.14385">
        <ele>244.93928201619</ele>
        <time>2019-10-30T12:59:21Z</time>
      </trkpt>
      <trkpt lat="43.48889" lon="1.14385">
        <ele>245.01973458604</ele>
        <time>2019-10-30T12:59:25Z</time>
      </trkpt>
      <trkpt lat="43.48879" lon="1.14383">
        <ele>245.28007772757</ele>
        <time>2019-10-30T12:59:33Z</time>
      </trkpt>
      <trkpt lat="43.48863" lon="1.1438">
        <ele>245.98500828008</ele>
        <time>2019-10-30T12:59:46Z</time>
      </trkpt>
      <trkpt lat="43.48851" lon="1.14378">
        <ele>246.84791106901</ele>
        <time>2019-10-30T12:59:56Z</time>
      </trkpt>
      <trkpt lat="43.48845" lon="1.14377">
        <ele>247.35314511362</ele>
        <time>2019-10-30T13:00:01Z</time>
      </trkpt>
      <trkpt lat="43.48834" lon="1.14374">
        <ele>248.47</ele>
        <time>2019-10-30T13:00:10Z</time>
      </trkpt>
      <trkpt lat="43.48823" lon="1.14373">
        <ele>249.68427313691</ele>
        <time>2019-10-30T13:00:18Z</time>
      </trkpt>
      <trkpt lat="43.48808" lon="1.14369">
        <ele>251.73817246065</ele>
        <time>2019-10-30T13:00:31Z</time>
      </trkpt>
      <trkpt lat="43.48798" lon="1.14368">
        <ele>253.16500403858</ele>
        <time>2019-10-30T13:00:39Z</time>
      </trkpt>
      <trkpt lat="43.48795" lon="1.14368">
        <ele>253.5751913837</ele>
        <time>2019-10-30T13:00:41Z</time>
      </trkpt>
      <trkpt lat="43.48789" lon="1.14365">
        <ele>254.5316532018</ele>
        <time>2019-10-30T13:00:47Z</time>
      </trkpt>
      <trkpt lat="43.48781" lon="1.14363">
        <ele>255.63708522956</ele>
        <time>2019-10-30T13:00:53Z</time>
      </trkpt>
      <trkpt lat="43.48765" lon="1.1436">
        <ele>257.84389371347</ele>
        <time>2019-10-30T13:01:06Z</time>
      </trkpt>
      <trkpt lat="43.48759" lon="1.1436">
        <ele>258.61841905555</ele>
        <time>2019-10-30T13:01:11Z</time>
      </trkpt>
      <trkpt lat="43.48755" lon="1.1436">
        <ele>259.1</ele>
        <time>2019-10-30T13:01:14Z</time>
      </trkpt>
      <trkpt lat="43.48751" lon="1.1436">
        <ele>259.56024286897</ele>
        <time>2019-10-30T13:01:17Z</time>
      </trkpt>
      <trkpt lat="43.48748" lon="1.14361">
        <ele>259.89310250812</ele>
        <time>2019-10-30T13:01:20Z</time>
      </trkpt>
      <trkpt lat="43.48744" lon="1.14362">
        <ele>260.30446893522</ele>
        <time>2019-10-30T13:01:23Z</time>
      </trkpt>
      <trkpt lat="43.48741" lon="1.14363">
        <ele>260.61066764922</ele>
        <time>2019-10-30T13:01:25Z</time>
      </trkpt>
      <trkpt lat="43.48735" lon="1.14367">
        <ele>261.25988558543</ele>
        <time>2019-10-30T13:01:31Z</time>
      </trkpt>
      <trkpt lat="43.48727" lon="1.14374">
        <ele>262.04333986321</ele>
        <time>2019-10-30T13:01:38Z</time>
      </trkpt>
      <trkpt lat="43.48724" lon="1.14376">
        <ele>262.30774159214</ele>
        <time>2019-10-30T13:01:41Z</time>
      </trkpt>
      <trkpt lat="43.48721" lon="1.14377">
        <ele>262.55189862176</ele>
        <time>2019-10-30T13:01:44Z</time>
      </trkpt>
      <trkpt lat="43.48714" lon="1.14379">
        <ele>263.01825758542</ele>
        <time>2019-10-30T13:01:49Z</time>
      </trkpt>
      <trkpt lat="43.4871" lon="1.1438">
        <ele>263.24926238778</ele>
        <time>2019-10-30T13:01:52Z</time>
      </trkpt>
      <trkpt lat="43.48701" lon="1.14386">
        <ele>263.81661196224</ele>
        <time>2019-10-30T13:02:01Z</time>
      </trkpt>
      <trkpt lat="43.48698" lon="1.14387">
        <ele>263.9729366792</ele>
        <time>2019-10-30T13:02:03Z</time>
      </trkpt>
      <trkpt lat="43.48694" lon="1.14389">
        <ele>264.16830211824</ele>
        <time>2019-10-30T13:02:07Z</time>
      </trkpt>
      <trkpt lat="43.4869" lon="1.14391">
        <ele>264.34834698457</ele>
        <time>2019-10-30T13:02:10Z</time>
      </trkpt>
      <trkpt lat="43.48687" lon="1.14394">
        <ele>264.48034210951</ele>
        <time>2019-10-30T13:02:13Z</time>
      </trkpt>
      <trkpt lat="43.48686" lon="1.14396">
        <ele>264.56459181483</ele>
        <time>2019-10-30T13:02:15Z</time>
      </trkpt>
      <trkpt lat="43.48684" lon="1.144">
        <ele>264.68</ele>
        <time>2019-10-30T13:02:17Z</time>
      </trkpt>
      <trkpt lat="43.48681" lon="1.14409">
        <ele>264.90386154165</ele>
        <time>2019-10-30T13:02:23Z</time>
      </trkpt>
      <trkpt lat="43.4868" lon="1.14414">
        <ele>265.01567551542</ele>
        <time>2019-10-30T13:02:26Z</time>
      </trkpt>
      <trkpt lat="43.48679" lon="1.14416">
        <ele>265.05774424773</ele>
        <time>2019-10-30T13:02:27Z</time>
      </trkpt>
      <trkpt lat="43.48679" lon="1.1442">
        <ele>265.12214931902</ele>
        <time>2019-10-30T13:02:29Z</time>
      </trkpt>
      <trkpt lat="43.4868" lon="1.14422">
        <ele>265.16615884506</ele>
        <time>2019-10-30T13:02:31Z</time>
      </trkpt>
      <trkpt lat="43.48682" lon="1.14425">
        <ele>265.23044986678</ele>
        <time>2019-10-30T13:02:33Z</time>
      </trkpt>
      <trkpt lat="43.48684" lon="1.14428">
        <ele>265.29649225427</ele>
        <time>2019-10-30T13:02:36Z</time>
      </trkpt>
      <trkpt lat="43.48688" lon="1.1443">
        <ele>265.3638174623</ele>
        <time>2019-10-30T13:02:39Z</time>
      </trkpt>
      <trkpt lat="43.4869" lon="1.14433">
        <ele>265.4152841179</ele>
        <time>2019-10-30T13:02:41Z</time>
      </trkpt>
      <trkpt lat="43.48706" lon="1.14455">
        <ele>265.58893220482</ele>
        <time>2019-10-30T13:02:59Z</time>
      </trkpt>
      <trkpt lat="43.48709" lon="1.1446">
        <ele>265.58570795579</ele>
        <time>2019-10-30T13:03:03Z</time>
      </trkpt>
      <trkpt lat="43.48715" lon="1.14472">
        <ele>265.53302715741</ele>
        <time>2019-10-30T13:03:11Z</time>
      </trkpt>
      <trkpt lat="43.48723" lon="1.14484">
        <ele>265.39</ele>
        <time>2019-10-30T13:03:21Z</time>
      </trkpt>
      <trkpt lat="43.48731" lon="1.14498">
        <ele>265.14424483559</ele>
        <time>2019-10-30T13:03:31Z</time>
      </trkpt>
      <trkpt lat="43.48735" lon="1.14505">
        <ele>264.98170532529</ele>
        <time>2019-10-30T13:03:36Z</time>
      </trkpt>
      <trkpt lat="43.48744" lon="1.14517">
        <ele>264.57577268739</ele>
        <time>2019-10-30T13:03:47Z</time>
      </trkpt>
      <trkpt lat="43.48747" lon="1.14522">
        <ele>264.4086576526</ele>
        <time>2019-10-30T13:03:50Z</time>
      </trkpt>
      <trkpt lat="43.4875" lon="1.14533">
        <ele>264.03404221522</ele>
        <time>2019-10-30T13:03:57Z</time>
      </trkpt>
      <trkpt lat="43.48756" lon="1.14544">
        <ele>263.50229166836</ele>
        <time>2019-10-30T13:04:05Z</time>
      </trkpt>
      <trkpt lat="43.48758" lon="1.14548">
        <ele>263.3387704222</ele>
        <time>2019-10-30T13:04:08Z</time>
      </trkpt>
      <trkpt lat="43.4876" lon="1.14554">
        <ele>263.01747119669</ele>
        <time>2019-10-30T13:04:12Z</time>
      </trkpt>
      <trkpt lat="43.48764" lon="1.14569">
        <ele>262.2398320071</ele>
        <time>2019-10-30T13:04:21Z</time>
      </trkpt>
      <trkpt lat="43.48764" lon="1.14571">
        <ele>262.07820878247</ele>
        <time>2019-10-30T13:04:22Z</time>
      </trkpt>
      <trkpt lat="43.48765" lon="1.14577">
        <ele>261.75</ele>
        <time>2019-10-30T13:04:26Z</time>
      </trkpt>
      <trkpt lat="43.48765" lon="1.14592">
        <ele>260.83256821033</ele>
        <time>2019-10-30T13:04:34Z</time>
      </trkpt>
      <trkpt lat="43.48768" lon="1.14606">
        <ele>259.77243156601</ele>
        <time>2019-10-30T13:04:43Z</time>
      </trkpt>
      <trkpt lat="43.48769" lon="1.14613">
        <ele>259.22435053304</ele>
        <time>2019-10-30T13:04:47Z</time>
      </trkpt>
      <trkpt lat="43.48771" lon="1.1462">
        <ele>258.6573908211</ele>
        <time>2019-10-30T13:04:52Z</time>
      </trkpt>
      <trkpt lat="43.48775" lon="1.14631">
        <ele>257.72713097921</ele>
        <time>2019-10-30T13:04:59Z</time>
      </trkpt>
      <trkpt lat="43.48782" lon="1.14647">
        <ele>256.14557104989</ele>
        <time>2019-10-30T13:05:10Z</time>
      </trkpt>
      <trkpt lat="43.48788" lon="1.14659">
        <ele>254.91979305614</ele>
        <time>2019-10-30T13:05:18Z</time>
      </trkpt>
      <trkpt lat="43.48792" lon="1.14666">
        <ele>254.23590986987</ele>
        <time>2019-10-30T13:05:23Z</time>
      </trkpt>
      <trkpt lat="43.48796" lon="1.14673">
        <ele>253.48283580028</ele>
        <time>2019-10-30T13:05:29Z</time>
      </trkpt>
      <trkpt lat="43.48802" lon="1.14681">
        <ele>252.55</ele>
        <time>2019-10-30T13:05:35Z</time>
      </trkpt>
      <trkpt lat="43.48804" lon="1.14686">
        <ele>252.13046513155</ele>
        <time>2019-10-30T13:05:39Z</time>
      </trkpt>
      <trkpt lat="43.48806" lon="1.1469">
        <ele>251.77068048329</ele>
        <time>2019-10-30T13:05:41Z</time>
      </trkpt>
      <trkpt lat="43.48808" lon="1.14698">
        <ele>251.09253342429</ele>
        <time>2019-10-30T13:05:47Z</time>
      </trkpt>
      <trkpt lat="43.48812" lon="1.14711">
        <ele>250.10626880903</ele>
        <time>2019-10-30T13:05:55Z</time>
      </trkpt>
      <trkpt lat="43.48815" lon="1.14721">
        <ele>249.29713627957</ele>
        <time>2019-10-30T13:06:01Z</time>
      </trkpt>
      <trkpt lat="43.48818" lon="1.14726">
        <ele>248.93125593048</ele>
        <time>2019-10-30T13:06:05Z</time>
      </trkpt>
      <trkpt lat="43.48819" lon="1.14729">
        <ele>248.674058546</ele>
        <time>2019-10-30T13:06:07Z</time>
      </trkpt>
      <trkpt lat="43.48821" lon="1.14732">
        <ele>248.42003404994</ele>
        <time>2019-10-30T13:06:09Z</time>
      </trkpt>
      <trkpt lat="43.48826" lon="1.14737">
        <ele>247.93298559475</ele>
        <time>2019-10-30T13:06:14Z</time>
      </trkpt>
      <trkpt lat="43.4883" lon="1.14741">
        <ele>247.56268822625</ele>
        <time>2019-10-30T13:06:18Z</time>
      </trkpt>
      <trkpt lat="43.48831" lon="1.14742">
        <ele>247.50279039018</ele>
        <time>2019-10-30T13:06:19Z</time>
      </trkpt>
      <trkpt lat="43.48834" lon="1.14743">
        <ele>247.27053661173</ele>
        <time>2019-10-30T13:06:21Z</time>
      </trkpt>
      <trkpt lat="43.48838" lon="1.14746">
        <ele>246.91752456442</ele>
        <time>2019-10-30T13:06:25Z</time>
      </trkpt>
      <trkpt lat="43.48842" lon="1.1475">
        <ele>246.58121420665</ele>
        <time>2019-10-30T13:06:29Z</time>
      </trkpt>
      <trkpt lat="43.48846" lon="1.14754">
        <ele>246.27394086568</ele>
        <time>2019-10-30T13:06:33Z</time>
      </trkpt>
      <trkpt lat="43.48849" lon="1.14759">
        <ele>246.01038502287</ele>
        <time>2019-10-30T13:06:37Z</time>
      </trkpt>
      <trkpt lat="43.48851" lon="1.14765">
        <ele>245.72</ele>
        <time>2019-10-30T13:06:41Z</time>
      </trkpt>
      <trkpt lat="43.48853" lon="1.14771">
        <ele>245.52910373691</ele>
        <time>2019-10-30T13:06:44Z</time>
      </trkpt>
      <trkpt lat="43.48853" lon="1.14773">
        <ele>245.45107416264</ele>
        <time>2019-10-30T13:06:46Z</time>
      </trkpt>
      <trkpt lat="43.48852" lon="1.14775">
        <ele>245.38762060218</ele>
        <time>2019-10-30T13:06:47Z</time>
      </trkpt>
      <trkpt lat="43.48852" lon="1.14776">
        <ele>245.35601735535</ele>
        <time>2019-10-30T13:06:47Z</time>
      </trkpt>
      <trkpt lat="43.48851" lon="1.14777">
        <ele>245.28539975662</ele>
        <time>2019-10-30T13:06:49Z</time>
      </trkpt>
      <trkpt lat="43.48849" lon="1.14778">
        <ele>245.20552133469</ele>
        <time>2019-10-30T13:06:50Z</time>
      </trkpt>
      <trkpt lat="43.48847" lon="1.14779">
        <ele>245.11306873351</ele>
        <time>2019-10-30T13:06:52Z</time>
      </trkpt>
      <trkpt lat="43.4884" lon="1.1478">
        <ele>244.87114112619</ele>
        <time>2019-10-30T13:06:58Z</time>
      </trkpt>
      <trkpt lat="43.48838" lon="1.14781">
        <ele>244.80873449897</ele>
        <time>2019-10-30T13:06:59Z</time>
      </trkpt>
      <trkpt lat="43.48836" lon="1.14782">
        <ele>244.75002572534</ele>
        <time>2019-10-30T13:07:01Z</time>
      </trkpt>
      <trkpt lat="43.48834" lon="1.14785">
        <ele>244.65858249651</ele>
        <time>2019-10-30T13:07:03Z</time>
      </trkpt>
      <trkpt lat="43.48831" lon="1.14794">
        <ele>244.48166452696</ele>
        <time>2019-10-30T13:07:09Z</time>
      </trkpt>
      <trkpt lat="43.48828" lon="1.14799">
        <ele>244.38801294696</ele>
        <time>2019-10-30T13:07:13Z</time>
      </trkpt>
      <trkpt lat="43.48825" lon="1.14804">
        <ele>244.30844245903</ele>
        <time>2019-10-30T13:07:17Z</time>
      </trkpt>
      <trkpt lat="43.48821" lon="1.14811">
        <ele>244.2228422314</ele>
        <time>2019-10-30T13:07:22Z</time>
      </trkpt>
      <trkpt lat="43.48809" lon="1.14828">
        <ele>244.09139436711</ele>
        <time>2019-10-30T13:07:36Z</time>
      </trkpt>
      <trkpt lat="43.488" lon="1.14842">
        <ele>244.08</ele>
        <time>2019-10-30T13:07:46Z</time>
      </trkpt>
      <trkpt lat="43.48798" lon="1.14844">
        <ele>244.08591135272</ele>
        <time>2019-10-30T13:07:49Z</time>
      </trkpt>
      <trkpt lat="43.48793" lon="1.14847">
        <ele>244.10055830103</ele>
        <time>2019-10-30T13:07:53Z</time>
      </trkpt>
      <trkpt lat="43.48789" lon="1.14851">
        <ele>244.11801668016</ele>
        <time>2019-10-30T13:07:57Z</time>
      </trkpt>
      <trkpt lat="43.4878" lon="1.1486">
        <ele>244.15631407734</ele>
        <time>2019-10-30T13:08:06Z</time>
      </trkpt>
      <trkpt lat="43.48761" lon="1.14879">
        <ele>244.1239384616</ele>
        <time>2019-10-30T13:08:24Z</time>
      </trkpt>
      <trkpt lat="43.48759" lon="1.14882">
        <ele>244.09491509435</ele>
        <time>2019-10-30T13:08:27Z</time>
      </trkpt>
      <trkpt lat="43.48754" lon="1.14888">
        <ele>244.02347827114</ele>
        <time>2019-10-30T13:08:32Z</time>
      </trkpt>
      <trkpt lat="43.48753" lon="1.1489">
        <ele>243.99</ele>
        <time>2019-10-30T13:08:33Z</time>
      </trkpt>
      <trkpt lat="43.48704" lon="1.14931">
        <ele>241.96137689212</ele>
        <time>2019-10-30T13:09:20Z</time>
      </trkpt>
      <trkpt lat="43.48692" lon="1.14942">
        <ele>241.33558475749</ele>
        <time>2019-10-30T13:09:30Z</time>
      </trkpt>
      <trkpt lat="43.48684" lon="1.14951">
        <ele>240.83666958347</ele>
        <time>2019-10-30T13:09:39Z</time>
      </trkpt>
      <trkpt lat="43.48677" lon="1.14957">
        <ele>240.49808818196</ele>
        <time>2019-10-30T13:09:46Z</time>
      </trkpt>
      <trkpt lat="43.48675" lon="1.14959">
        <ele>240.41055610593</ele>
        <time>2019-10-30T13:09:47Z</time>
      </trkpt>
      <trkpt lat="43.48668" lon="1.14965">
        <ele>240.07</ele>
        <time>2019-10-30T13:09:54Z</time>
      </trkpt>
      <trkpt lat="43.4866" lon="1.14971">
        <ele>239.7688307992</ele>
        <time>2019-10-30T13:10:01Z</time>
      </trkpt>
      <trkpt lat="43.48657" lon="1.14974">
        <ele>239.6394003576</ele>
        <time>2019-10-30T13:10:05Z</time>
      </trkpt>
      <trkpt lat="43.48655" lon="1.14976">
        <ele>239.5524190669</ele>
        <time>2019-10-30T13:10:07Z</time>
      </trkpt>
      <trkpt lat="43.48646" lon="1.14986">
        <ele>239.25402763834</ele>
        <time>2019-10-30T13:10:16Z</time>
      </trkpt>
      <trkpt lat="43.48641" lon="1.14991">
        <ele>239.1040620113</ele>
        <time>2019-10-30T13:10:21Z</time>
      </trkpt>
      <trkpt lat="43.48636" lon="1.14995">
        <ele>238.97693971694</ele>
        <time>2019-10-30T13:10:25Z</time>
      </trkpt>
      <trkpt lat="43.48617" lon="1.15008">
        <ele>238.58462595572</ele>
        <time>2019-10-30T13:10:42Z</time>
      </trkpt>
      <trkpt lat="43.48613" lon="1.1501">
        <ele>238.50522274011</ele>
        <time>2019-10-30T13:10:46Z</time>
      </trkpt>
      <trkpt lat="43.48606" lon="1.15014">
        <ele>238.39</ele>
        <time>2019-10-30T13:10:52Z</time>
      </trkpt>
      <trkpt lat="43.48578" lon="1.15026">
        <ele>238.01678543845</ele>
        <time>2019-10-30T13:11:16Z</time>
      </trkpt>
      <trkpt lat="43.4857" lon="1.15029">
        <ele>237.93990517925</ele>
        <time>2019-10-30T13:11:22Z</time>
      </trkpt>
      <trkpt lat="43.48555" lon="1.15034">
        <ele>237.82015914688</ele>
        <time>2019-10-30T13:11:34Z</time>
      </trkpt>
      <trkpt lat="43.48544" lon="1.15037">
        <ele>237.76142298007</ele>
        <time>2019-10-30T13:11:44Z</time>
      </trkpt>
      <trkpt lat="43.48537" lon="1.15038">
        <ele>237.74407045962</ele>
        <time>2019-10-30T13:11:49Z</time>
      </trkpt>
      <trkpt lat="43.48527" lon="1.15037">
        <ele>237.74</ele>
        <time>2019-10-30T13:11:57Z</time>
      </trkpt>
      <trkpt lat="43.48506" lon="1.15035">
        <ele>237.80157361331</ele>
        <time>2019-10-30T13:12:13Z</time>
      </trkpt>
      <trkpt lat="43.48466" lon="1.15032">
        <ele>237.86649241626</ele>
        <time>2019-10-30T13:12:46Z</time>
      </trkpt>
      <trkpt lat="43.48461" lon="1.15033">
        <ele>237.8391927745</ele>
        <time>2019-10-30T13:12:50Z</time>
      </trkpt>
      <trkpt lat="43.48452" lon="1.15035">
        <ele>237.75631347641</ele>
        <time>2019-10-30T13:12:57Z</time>
      </trkpt>
      <trkpt lat="43.48441" lon="1.15035">
        <ele>237.58</ele>
        <time>2019-10-30T13:13:06Z</time>
      </trkpt>
      <trkpt lat="43.48422" lon="1.15039">
        <ele>237.07747801091</ele>
        <time>2019-10-30T13:13:21Z</time>
      </trkpt>
      <trkpt lat="43.48406" lon="1.15042">
        <ele>236.46780879969</ele>
        <time>2019-10-30T13:13:35Z</time>
      </trkpt>
      <trkpt lat="43.48398" lon="1.15044">
        <ele>236.15804060225</ele>
        <time>2019-10-30T13:13:41Z</time>
      </trkpt>
      <trkpt lat="43.48388" lon="1.15047">
        <ele>235.71657564228</ele>
        <time>2019-10-30T13:13:49Z</time>
      </trkpt>
      <trkpt lat="43.48383" lon="1.15048">
        <ele>235.49019419478</ele>
        <time>2019-10-30T13:13:53Z</time>
      </trkpt>
      <trkpt lat="43.48374" lon="1.15049">
        <ele>235.08405908089</ele>
        <time>2019-10-30T13:14:00Z</time>
      </trkpt>
      <trkpt lat="43.4837" lon="1.1505">
        <ele>234.92777688612</ele>
        <time>2019-10-30T13:14:03Z</time>
      </trkpt>
      <trkpt lat="43.48366" lon="1.15052">
        <ele>234.73729241551</ele>
        <time>2019-10-30T13:14:07Z</time>
      </trkpt>
      <trkpt lat="43.48363" lon="1.15054">
        <ele>234.59</ele>
        <time>2019-10-30T13:14:10Z</time>
      </trkpt>
      <trkpt lat="43.48355" lon="1.15055">
        <ele>234.27523480996</ele>
        <time>2019-10-30T13:14:16Z</time>
      </trkpt>
      <trkpt lat="43.48346" lon="1.15058">
        <ele>233.90437726648</ele>
        <time>2019-10-30T13:14:23Z</time>
      </trkpt>
      <trkpt lat="43.48336" lon="1.15059">
        <ele>233.53694916095</ele>
        <time>2019-10-30T13:14:31Z</time>
      </trkpt>
      <trkpt lat="43.48326" lon="1.15062">
        <ele>233.17500451868</ele>
        <time>2019-10-30T13:14:39Z</time>
      </trkpt>
      <trkpt lat="43.4832" lon="1.15064">
        <ele>232.9677191821</ele>
        <time>2019-10-30T13:14:45Z</time>
      </trkpt>
      <trkpt lat="43.48301" lon="1.15067">
        <ele>232.41369054238</ele>
        <time>2019-10-30T13:15:00Z</time>
      </trkpt>
      <trkpt lat="43.48293" lon="1.15068">
        <ele>232.21810057451</ele>
        <time>2019-10-30T13:15:07Z</time>
      </trkpt>
      <trkpt lat="43.48285" lon="1.15068">
        <ele>232.05015644778</ele>
        <time>2019-10-30T13:15:13Z</time>
      </trkpt>
      <trkpt lat="43.48277" lon="1.15067">
        <ele>231.91</ele>
        <time>2019-10-30T13:15:19Z</time>
      </trkpt>
      <trkpt lat="43.4827" lon="1.15066">
        <ele>231.79800539825</ele>
        <time>2019-10-30T13:15:25Z</time>
      </trkpt>
      <trkpt lat="43.48254" lon="1.15062">
        <ele>231.60247232552</ele>
        <time>2019-10-30T13:15:38Z</time>
      </trkpt>
      <trkpt lat="43.48242" lon="1.1506">
        <ele>231.50924827496</ele>
        <time>2019-10-30T13:15:47Z</time>
      </trkpt>
      <trkpt lat="43.48234" lon="1.15058">
        <ele>231.46324191114</ele>
        <time>2019-10-30T13:15:54Z</time>
      </trkpt>
      <trkpt lat="43.4822" lon="1.15053">
        <ele>231.40663840605</ele>
        <time>2019-10-30T13:16:05Z</time>
      </trkpt>
      <trkpt lat="43.48215" lon="1.15052">
        <ele>231.39163837633</ele>
        <time>2019-10-30T13:16:09Z</time>
      </trkpt>
      <trkpt lat="43.48198" lon="1.15049">
        <ele>231.35</ele>
        <time>2019-10-30T13:16:23Z</time>
      </trkpt>
      <trkpt lat="43.48183" lon="1.15046">
        <ele>231.31897752859</ele>
        <time>2019-10-30T13:16:35Z</time>
      </trkpt>
      <trkpt lat="43.48177" lon="1.15045">
        <ele>231.31038484008</ele>
        <time>2019-10-30T13:16:40Z</time>
      </trkpt>
      <trkpt lat="43.48165" lon="1.15042">
        <ele>231.30874497105</ele>
        <time>2019-10-30T13:16:50Z</time>
      </trkpt>
      <trkpt lat="43.48157" lon="1.15042">
        <ele>231.32258094875</ele>
        <time>2019-10-30T13:16:56Z</time>
      </trkpt>
      <trkpt lat="43.48147" lon="1.15041">
        <ele>231.36804866534</ele>
        <time>2019-10-30T13:17:05Z</time>
      </trkpt>
      <trkpt lat="43.4814" lon="1.1504">
        <ele>231.41183584736</ele>
        <time>2019-10-30T13:17:10Z</time>
      </trkpt>
      <trkpt lat="43.48125" lon="1.15035">
        <ele>231.58</ele>
        <time>2019-10-30T13:17:22Z</time>
      </trkpt>
      <trkpt lat="43.4811" lon="1.1503">
        <ele>231.8515564559</ele>
        <time>2019-10-30T13:17:34Z</time>
      </trkpt>
      <trkpt lat="43.48099" lon="1.15026">
        <ele>232.08881887985</ele>
        <time>2019-10-30T13:17:43Z</time>
      </trkpt>
      <trkpt lat="43.4809" lon="1.15023">
        <ele>232.3114073901</ele>
        <time>2019-10-30T13:17:51Z</time>
      </trkpt>
      <trkpt lat="43.48078" lon="1.15019">
        <ele>232.58834104223</ele>
        <time>2019-10-30T13:18:01Z</time>
      </trkpt>
      <trkpt lat="43.48063" lon="1.15015">
        <ele>232.89823478769</ele>
        <time>2019-10-30T13:18:14Z</time>
      </trkpt>
      <trkpt lat="43.48049" lon="1.1501">
        <ele>233.11486535654</ele>
        <time>2019-10-30T13:18:25Z</time>
      </trkpt>
      <trkpt lat="43.48039" lon="1.15005">
        <ele>233.2</ele>
        <time>2019-10-30T13:18:33Z</time>
      </trkpt>
      <trkpt lat="43.48034" lon="1.15004">
        <ele>233.21759533448</ele>
        <time>2019-10-30T13:18:38Z</time>
      </trkpt>
      <trkpt lat="43.4802" lon="1.15">
        <ele>233.18351896221</ele>
        <time>2019-10-30T13:18:49Z</time>
      </trkpt>
      <trkpt lat="43.48014" lon="1.14997">
        <ele>233.12661069697</ele>
        <time>2019-10-30T13:18:54Z</time>
      </trkpt>
      <trkpt lat="43.48006" lon="1.14994">
        <ele>233.03483801844</ele>
        <time>2019-10-30T13:19:00Z</time>
      </trkpt>
      <trkpt lat="43.47998" lon="1.14991">
        <ele>232.89843132174</ele>
        <time>2019-10-30T13:19:07Z</time>
      </trkpt>
      <trkpt lat="43.47959" lon="1.14978">
        <ele>232</ele>
        <time>2019-10-30T13:19:39Z</time>
      </trkpt>
      <trkpt lat="43.47943" lon="1.14972">
        <ele>231.53989581375</ele>
        <time>2019-10-30T13:19:53Z</time>
      </trkpt>
      <trkpt lat="43.4793" lon="1.14967">
        <ele>231.21200727597</ele>
        <time>2019-10-30T13:20:03Z</time>
      </trkpt>
      <trkpt lat="43.47922" lon="1.14965">
        <ele>231.01092783442</ele>
        <time>2019-10-30T13:20:10Z</time>
      </trkpt>
      <trkpt lat="43.47915" lon="1.14963">
        <ele>230.86673883527</ele>
        <time>2019-10-30T13:20:15Z</time>
      </trkpt>
      <trkpt lat="43.47907" lon="1.1496">
        <ele>230.72147935869</ele>
        <time>2019-10-30T13:20:22Z</time>
      </trkpt>
      <trkpt lat="43.47896" lon="1.14955">
        <ele>230.57661216388</ele>
        <time>2019-10-30T13:20:32Z</time>
      </trkpt>
      <trkpt lat="43.47888" lon="1.14953">
        <ele>230.53</ele>
        <time>2019-10-30T13:20:38Z</time>
      </trkpt>
      <trkpt lat="43.47864" lon="1.14944">
        <ele>230.65994137581</ele>
        <time>2019-10-30T13:20:58Z</time>
      </trkpt>
      <trkpt lat="43.47856" lon="1.14941">
        <ele>230.77392317915</ele>
        <time>2019-10-30T13:21:04Z</time>
      </trkpt>
      <trkpt lat="43.47852" lon="1.1494">
        <ele>230.85606858993</ele>
        <time>2019-10-30T13:21:08Z</time>
      </trkpt>
      <trkpt lat="43.47847" lon="1.14939">
        <ele>230.93945166117</ele>
        <time>2019-10-30T13:21:12Z</time>
      </trkpt>
      <trkpt lat="43.47827" lon="1.14938">
        <ele>231.40837614014</ele>
        <time>2019-10-30T13:21:28Z</time>
      </trkpt>
      <trkpt lat="43.47807" lon="1.14938">
        <ele>231.95</ele>
        <time>2019-10-30T13:21:44Z</time>
      </trkpt>
      <trkpt lat="43.47799" lon="1.14938">
        <ele>232.19734157011</ele>
        <time>2019-10-30T13:21:50Z</time>
      </trkpt>
      <trkpt lat="43.47768" lon="1.14938">
        <ele>233.08859806923</ele>
        <time>2019-10-30T13:22:15Z</time>
      </trkpt>
      <trkpt lat="43.47747" lon="1.1494">
        <ele>233.76195863537</ele>
        <time>2019-10-30T13:22:32Z</time>
      </trkpt>
      <trkpt lat="43.47737" lon="1.1494">
        <ele>234.0588575966</ele>
        <time>2019-10-30T13:22:40Z</time>
      </trkpt>
      <trkpt lat="43.4773" lon="1.14938">
        <ele>234.31174245232</ele>
        <time>2019-10-30T13:22:46Z</time>
      </trkpt>
      <trkpt lat="43.47728" lon="1.14939">
        <ele>234.38874811343</ele>
        <time>2019-10-30T13:22:48Z</time>
      </trkpt>
      <trkpt lat="43.47724" lon="1.1494">
        <ele>234.51084948279</ele>
        <time>2019-10-30T13:22:50Z</time>
      </trkpt>
      <trkpt lat="43.4772" lon="1.14939">
        <ele>234.64</ele>
        <time>2019-10-30T13:22:53Z</time>
      </trkpt>
      <trkpt lat="43.47711" lon="1.14934">
        <ele>234.96848020701</ele>
        <time>2019-10-30T13:23:01Z</time>
      </trkpt>
      <trkpt lat="43.47708" lon="1.14933">
        <ele>235.09527615799</ele>
        <time>2019-10-30T13:23:04Z</time>
      </trkpt>
      <trkpt lat="43.47702" lon="1.14932">
        <ele>235.29112539654</ele>
        <time>2019-10-30T13:23:09Z</time>
      </trkpt>
      <trkpt lat="43.477" lon="1.14932">
        <ele>235.36475813159</ele>
        <time>2019-10-30T13:23:10Z</time>
      </trkpt>
      <trkpt lat="43.47696" lon="1.14933">
        <ele>235.5040496791</ele>
        <time>2019-10-30T13:23:14Z</time>
      </trkpt>
      <trkpt lat="43.47693" lon="1.14933">
        <ele>235.59270817394</ele>
        <time>2019-10-30T13:23:16Z</time>
      </trkpt>
      <trkpt lat="43.47691" lon="1.14933">
        <ele>235.64848572089</ele>
        <time>2019-10-30T13:23:17Z</time>
      </trkpt>
      <trkpt lat="43.4769" lon="1.14933">
        <ele>235.69522305759</ele>
        <time>2019-10-30T13:23:19Z</time>
      </trkpt>
      <trkpt lat="43.4768" lon="1.14932">
        <ele>235.96833750011</ele>
        <time>2019-10-30T13:23:26Z</time>
      </trkpt>
      <trkpt lat="43.47647" lon="1.14925">
        <ele>236.41</ele>
        <time>2019-10-30T13:23:53Z</time>
      </trkpt>
      <trkpt lat="43.47632" lon="1.14923">
        <ele>236.2732209063</ele>
        <time>2019-10-30T13:24:05Z</time>
      </trkpt>
      <trkpt lat="43.47624" lon="1.14922">
        <ele>236.12121821231</ele>
        <time>2019-10-30T13:24:11Z</time>
      </trkpt>
      <trkpt lat="43.47604" lon="1.14916">
        <ele>235.53215442507</ele>
        <time>2019-10-30T13:24:27Z</time>
      </trkpt>
      <trkpt lat="43.47588" lon="1.14911">
        <ele>234.89580540596</ele>
        <time>2019-10-30T13:24:41Z</time>
      </trkpt>
      <trkpt lat="43.47582" lon="1.14909">
        <ele>234.64593295792</ele>
        <time>2019-10-30T13:24:46Z</time>
      </trkpt>
      <trkpt lat="43.47573" lon="1.14905">
        <ele>234.24613203373</ele>
        <time>2019-10-30T13:24:53Z</time>
      </trkpt>
      <trkpt lat="43.4757" lon="1.14905">
        <ele>234.13030118057</ele>
        <time>2019-10-30T13:24:56Z</time>
      </trkpt>
      <trkpt lat="43.47563" lon="1.14904">
        <ele>233.84</ele>
        <time>2019-10-30T13:25:01Z</time>
      </trkpt>
      <trkpt lat="43.4756" lon="1.14903">
        <ele>233.68495304494</ele>
        <time>2019-10-30T13:25:04Z</time>
      </trkpt>
      <trkpt lat="43.47549" lon="1.14898">
        <ele>233.25059438434</ele>
        <time>2019-10-30T13:25:13Z</time>
      </trkpt>
      <trkpt lat="43.47535" lon="1.14892">
        <ele>232.69688283339</ele>
        <time>2019-10-30T13:25:25Z</time>
      </trkpt>
      <trkpt lat="43.47527" lon="1.1489">
        <ele>232.42944584657</ele>
        <time>2019-10-30T13:25:32Z</time>
      </trkpt>
      <trkpt lat="43.47511" lon="1.14886">
        <ele>232.00475336891</ele>
        <time>2019-10-30T13:25:44Z</time>
      </trkpt>
      <trkpt lat="43.47503" lon="1.14885">
        <ele>231.82140406395</ele>
        <time>2019-10-30T13:25:51Z</time>
      </trkpt>
      <trkpt lat="43.4749" lon="1.14884">
        <ele>231.64562617617</ele>
        <time>2019-10-30T13:26:01Z</time>
      </trkpt>
      <trkpt lat="43.47484" lon="1.14883">
        <ele>231.6</ele>
        <time>2019-10-30T13:26:06Z</time>
      </trkpt>
      <trkpt lat="43.47474" lon="1.1488">
        <ele>231.58275311391</ele>
        <time>2019-10-30T13:26:15Z</time>
      </trkpt>
      <trkpt lat="43.47471" lon="1.1488">
        <ele>231.5883597457</ele>
        <time>2019-10-30T13:26:17Z</time>
      </trkpt>
      <trkpt lat="43.47469" lon="1.1488">
        <ele>231.59730598793</ele>
        <time>2019-10-30T13:26:19Z</time>
      </trkpt>
      <trkpt lat="43.47463" lon="1.14881">
        <ele>231.62680946341</ele>
        <time>2019-10-30T13:26:23Z</time>
      </trkpt>
      <trkpt lat="43.47457" lon="1.14882">
        <ele>231.67307892121</ele>
        <time>2019-10-30T13:26:28Z</time>
      </trkpt>
      <trkpt lat="43.47447" lon="1.14883">
        <ele>231.7649196459</ele>
        <time>2019-10-30T13:26:36Z</time>
      </trkpt>
      <trkpt lat="43.47438" lon="1.14884">
        <ele>231.84376863293</ele>
        <time>2019-10-30T13:26:43Z</time>
      </trkpt>
      <trkpt lat="43.4743" lon="1.14885">
        <ele>231.90863336563</ele>
        <time>2019-10-30T13:26:50Z</time>
      </trkpt>
      <trkpt lat="43.47417" lon="1.14888">
        <ele>231.96172942158</ele>
        <time>2019-10-30T13:27:00Z</time>
      </trkpt>
      <trkpt lat="43.47408" lon="1.1489">
        <ele>231.94228501081</ele>
        <time>2019-10-30T13:27:08Z</time>
      </trkpt>
      <trkpt lat="43.47401" lon="1.1489">
        <ele>231.89</ele>
        <time>2019-10-30T13:27:13Z</time>
      </trkpt>
      <trkpt lat="43.47384" lon="1.14891">
        <ele>231.59019457983</ele>
        <time>2019-10-30T13:27:27Z</time>
      </trkpt>
      <trkpt lat="43.47358" lon="1.14892">
        <ele>230.85248655602</ele>
        <time>2019-10-30T13:27:47Z</time>
      </trkpt>
      <trkpt lat="43.47349" lon="1.14893">
        <ele>230.55492104942</ele>
        <time>2019-10-30T13:27:55Z</time>
      </trkpt>
      <trkpt lat="43.47342" lon="1.14894">
        <ele>230.34355439944</ele>
        <time>2019-10-30T13:28:00Z</time>
      </trkpt>
      <trkpt lat="43.47339" lon="1.14894">
        <ele>230.23833029336</ele>
        <time>2019-10-30T13:28:03Z</time>
      </trkpt>
      <trkpt lat="43.47336" lon="1.14894">
        <ele>230.13320204283</ele>
        <time>2019-10-30T13:28:05Z</time>
      </trkpt>
      <trkpt lat="43.47327" lon="1.14893">
        <ele>229.89</ele>
        <time>2019-10-30T13:28:12Z</time>
      </trkpt>
      <trkpt lat="43.4732" lon="1.14893">
        <ele>229.71900408605</ele>
        <time>2019-10-30T13:28:18Z</time>
      </trkpt>
      <trkpt lat="43.47306" lon="1.14894">
        <ele>229.4411732051</ele>
        <time>2019-10-30T13:28:29Z</time>
      </trkpt>
      <trkpt lat="43.47295" lon="1.14895">
        <ele>229.24511832058</ele>
        <time>2019-10-30T13:28:38Z</time>
      </trkpt>
      <trkpt lat="43.47286" lon="1.14896">
        <ele>229.09813052499</ele>
        <time>2019-10-30T13:28:45Z</time>
      </trkpt>
      <trkpt lat="43.47272" lon="1.14899">
        <ele>228.85572152361</ele>
        <time>2019-10-30T13:28:57Z</time>
      </trkpt>
      <trkpt lat="43.47261" lon="1.149">
        <ele>228.6658214887</ele>
        <time>2019-10-30T13:29:05Z</time>
      </trkpt>
      <trkpt lat="43.47254" lon="1.149">
        <ele>228.51627173406</ele>
        <time>2019-10-30T13:29:11Z</time>
      </trkpt>
      <trkpt lat="43.47241" lon="1.149">
        <ele>228.2</ele>
        <time>2019-10-30T13:29:21Z</time>
      </trkpt>
      <trkpt lat="43.47197" lon="1.14896">
        <ele>226.95741512218</ele>
        <time>2019-10-30T13:29:57Z</time>
      </trkpt>
      <trkpt lat="43.47171" lon="1.14893">
        <ele>226.94</ele>
        <time>2019-10-30T13:30:17Z</time>
      </trkpt>
      <trkpt lat="43.47147" lon="1.14889">
        <ele>227.88210416219</ele>
        <time>2019-10-30T13:30:37Z</time>
      </trkpt>
      <trkpt lat="43.47139" lon="1.14889">
        <ele>228.38994468728</ele>
        <time>2019-10-30T13:30:44Z</time>
      </trkpt>
      <trkpt lat="43.47134" lon="1.14889">
        <ele>228.66133979172</ele>
        <time>2019-10-30T13:30:47Z</time>
      </trkpt>
      <trkpt lat="43.47127" lon="1.1489">
        <ele>229.11895132689</ele>
        <time>2019-10-30T13:30:53Z</time>
      </trkpt>
      <trkpt lat="43.47122" lon="1.14892">
        <ele>229.47907566887</ele>
        <time>2019-10-30T13:30:57Z</time>
      </trkpt>
      <trkpt lat="43.47117" lon="1.14894">
        <ele>229.81674132026</ele>
        <time>2019-10-30T13:31:01Z</time>
      </trkpt>
      <trkpt lat="43.47114" lon="1.14896">
        <ele>230.05909437855</ele>
        <time>2019-10-30T13:31:04Z</time>
      </trkpt>
      <trkpt lat="43.4711" lon="1.14899">
        <ele>230.3464373485</ele>
        <time>2019-10-30T13:31:07Z</time>
      </trkpt>
      <trkpt lat="43.47107" lon="1.14902">
        <ele>230.63235438164</ele>
        <time>2019-10-30T13:31:11Z</time>
      </trkpt>
      <trkpt lat="43.47104" lon="1.14906">
        <ele>230.86247247059</ele>
        <time>2019-10-30T13:31:14Z</time>
      </trkpt>
      <trkpt lat="43.47103" lon="1.14906">
        <ele>230.93732842742</ele>
        <time>2019-10-30T13:31:15Z</time>
      </trkpt>
      <trkpt lat="43.47098" lon="1.14908">
        <ele>231.20374526136</ele>
        <time>2019-10-30T13:31:19Z</time>
      </trkpt>
      <trkpt lat="43.4709" lon="1.14911">
        <ele>231.65149679551</ele>
        <time>2019-10-30T13:31:26Z</time>
      </trkpt>
      <trkpt lat="43.47084" lon="1.14917">
        <ele>231.95</ele>
        <time>2019-10-30T13:31:31Z</time>
      </trkpt>
      <trkpt lat="43.47081" lon="1.14918">
        <ele>232.0462310725</ele>
        <time>2019-10-30T13:31:34Z</time>
      </trkpt>
      <trkpt lat="43.47077" lon="1.14921">
        <ele>232.17368334167</ele>
        <time>2019-10-30T13:31:37Z</time>
      </trkpt>
      <trkpt lat="43.47071" lon="1.14926">
        <ele>232.32568599762</ele>
        <time>2019-10-30T13:31:43Z</time>
      </trkpt>
      <trkpt lat="43.47062" lon="1.14931">
        <ele>232.43970170214</ele>
        <time>2019-10-30T13:31:51Z</time>
      </trkpt>
      <trkpt lat="43.47053" lon="1.14938">
        <ele>232.47087158808</ele>
        <time>2019-10-30T13:31:59Z</time>
      </trkpt>
      <trkpt lat="43.47049" lon="1.1494">
        <ele>232.46613056573</ele>
        <time>2019-10-30T13:32:02Z</time>
      </trkpt>
      <trkpt lat="43.47044" lon="1.14942">
        <ele>232.44879315902</ele>
        <time>2019-10-30T13:32:07Z</time>
      </trkpt>
      <trkpt lat="43.47041" lon="1.14943">
        <ele>232.4374207239</ele>
        <time>2019-10-30T13:32:09Z</time>
      </trkpt>
      <trkpt lat="43.47039" lon="1.14943">
        <ele>232.42688180157</ele>
        <time>2019-10-30T13:32:10Z</time>
      </trkpt>
      <trkpt lat="43.47036" lon="1.14943">
        <ele>232.40694401457</ele>
        <time>2019-10-30T13:32:13Z</time>
      </trkpt>
      <trkpt lat="43.47027" lon="1.14945">
        <ele>232.35785528784</ele>
        <time>2019-10-30T13:32:21Z</time>
      </trkpt>
      <trkpt lat="43.47018" lon="1.14946">
        <ele>232.32579042586</ele>
        <time>2019-10-30T13:32:28Z</time>
      </trkpt>
      <trkpt lat="43.47009" lon="1.14947">
        <ele>232.33</ele>
        <time>2019-10-30T13:32:35Z</time>
      </trkpt>
      <trkpt lat="43.47005" lon="1.14948">
        <ele>232.35101553423</ele>
        <time>2019-10-30T13:32:38Z</time>
      </trkpt>
      <trkpt lat="43.46996" lon="1.14947">
        <ele>232.42214045957</ele>
        <time>2019-10-30T13:32:45Z</time>
      </trkpt>
      <trkpt lat="43.46993" lon="1.14948">
        <ele>232.46291706351</ele>
        <time>2019-10-30T13:32:48Z</time>
      </trkpt>
      <trkpt lat="43.46987" lon="1.14948">
        <ele>232.53788309416</ele>
        <time>2019-10-30T13:32:52Z</time>
      </trkpt>
      <trkpt lat="43.46975" lon="1.1495">
        <ele>232.75012650775</ele>
        <time>2019-10-30T13:33:02Z</time>
      </trkpt>
      <trkpt lat="43.46967" lon="1.14951">
        <ele>232.88155708271</ele>
        <time>2019-10-30T13:33:08Z</time>
      </trkpt>
      <trkpt lat="43.46962" lon="1.1495">
        <ele>232.97413557529</ele>
        <time>2019-10-30T13:33:12Z</time>
      </trkpt>
      <trkpt lat="43.46955" lon="1.14949">
        <ele>233.11603142051</ele>
        <time>2019-10-30T13:33:18Z</time>
      </trkpt>
      <trkpt lat="43.46944" lon="1.14948">
        <ele>233.2890940321</ele>
        <time>2019-10-30T13:33:27Z</time>
      </trkpt>
      <trkpt lat="43.4693" lon="1.14944">
        <ele>233.46</ele>
        <time>2019-10-30T13:33:39Z</time>
      </trkpt>
      <trkpt lat="43.46921" lon="1.14942">
        <ele>233.50895870723</ele>
        <time>2019-10-30T13:33:46Z</time>
      </trkpt>
      <trkpt lat="43.46912" lon="1.14942">
        <ele>233.51835790004</ele>
        <time>2019-10-30T13:33:53Z</time>
      </trkpt>
      <trkpt lat="43.46902" lon="1.14942">
        <ele>233.49384293324</ele>
        <time>2019-10-30T13:34:01Z</time>
      </trkpt>
      <trkpt lat="43.46892" lon="1.14942">
        <ele>233.44242164967</ele>
        <time>2019-10-30T13:34:09Z</time>
      </trkpt>
      <trkpt lat="43.46884" lon="1.14943">
        <ele>233.38634498665</ele>
        <time>2019-10-30T13:34:15Z</time>
      </trkpt>
      <trkpt lat="43.46879" lon="1.14942">
        <ele>233.351951258</ele>
        <time>2019-10-30T13:34:19Z</time>
      </trkpt>
      <trkpt lat="43.46877" lon="1.14941">
        <ele>233.33101025897</ele>
        <time>2019-10-30T13:34:21Z</time>
      </trkpt>
      <trkpt lat="43.46877" lon="1.14941">
        <ele>233.32939691865</ele>
        <time>2019-10-30T13:34:21Z</time>
      </trkpt>
      <trkpt lat="43.46877" lon="1.14941">
        <ele>233.32686092667</ele>
        <time>2019-10-30T13:34:22Z</time>
      </trkpt>
      <trkpt lat="43.46874" lon="1.14942">
        <ele>233.3087422638</ele>
        <time>2019-10-30T13:34:24Z</time>
      </trkpt>
      <trkpt lat="43.4687" lon="1.14943">
        <ele>233.27874463101</ele>
        <time>2019-10-30T13:34:27Z</time>
      </trkpt>
      <trkpt lat="43.46858" lon="1.14943">
        <ele>233.2</ele>
        <time>2019-10-30T13:34:36Z</time>
      </trkpt>
      <trkpt lat="43.46843" lon="1.14944">
        <ele>233.13708668402</ele>
        <time>2019-10-30T13:34:49Z</time>
      </trkpt>
      <trkpt lat="43.4683" lon="1.14945">
        <ele>233.1185251475</ele>
        <time>2019-10-30T13:34:59Z</time>
      </trkpt>
      <trkpt lat="43.4682" lon="1.14947">
        <ele>233.12430293194</ele>
        <time>2019-10-30T13:35:07Z</time>
      </trkpt>
      <trkpt lat="43.46783" lon="1.14954">
        <ele>233.27354150341</ele>
        <time>2019-10-30T13:35:37Z</time>
      </trkpt>
      <trkpt lat="43.46775" lon="1.14956">
        <ele>233.33</ele>
        <time>2019-10-30T13:35:43Z</time>
      </trkpt>
      <trkpt lat="43.46762" lon="1.1496">
        <ele>233.43685902128</ele>
        <time>2019-10-30T13:35:54Z</time>
      </trkpt>
      <trkpt lat="43.46757" lon="1.14962">
        <ele>233.47786116788</ele>
        <time>2019-10-30T13:35:58Z</time>
      </trkpt>
      <trkpt lat="43.46753" lon="1.14962">
        <ele>233.50819887701</ele>
        <time>2019-10-30T13:36:01Z</time>
      </trkpt>
      <trkpt lat="43.46738" lon="1.14963">
        <ele>233.61754782487</ele>
        <time>2019-10-30T13:36:14Z</time>
      </trkpt>
      <trkpt lat="43.46734" lon="1.14964">
        <ele>233.63952162228</ele>
        <time>2019-10-30T13:36:17Z</time>
      </trkpt>
      <trkpt lat="43.46728" lon="1.14965">
        <ele>233.67008775295</ele>
        <time>2019-10-30T13:36:22Z</time>
      </trkpt>
      <trkpt lat="43.46716" lon="1.14969">
        <ele>233.69806263515</ele>
        <time>2019-10-30T13:36:31Z</time>
      </trkpt>
      <trkpt lat="43.46698" lon="1.14973">
        <ele>233.64782505872</ele>
        <time>2019-10-30T13:36:46Z</time>
      </trkpt>
      <trkpt lat="43.46694" lon="1.14975">
        <ele>233.61959656323</ele>
        <time>2019-10-30T13:36:49Z</time>
      </trkpt>
      <trkpt lat="43.46692" lon="1.14976">
        <ele>233.59670343433</ele>
        <time>2019-10-30T13:36:51Z</time>
      </trkpt>
      <trkpt lat="43.4669" lon="1.14979">
        <ele>233.57</ele>
        <time>2019-10-30T13:36:53Z</time>
      </trkpt>
      <trkpt lat="43.46687" lon="1.14983">
        <ele>233.52062964546</ele>
        <time>2019-10-30T13:36:56Z</time>
      </trkpt>
      <trkpt lat="43.46683" lon="1.14991">
        <ele>233.41728742734</ele>
        <time>2019-10-30T13:37:02Z</time>
      </trkpt>
      <trkpt lat="43.46681" lon="1.14998">
        <ele>233.32194644108</ele>
        <time>2019-10-30T13:37:07Z</time>
      </trkpt>
      <trkpt lat="43.46674" lon="1.15017">
        <ele>233.01386707006</ele>
        <time>2019-10-30T13:37:19Z</time>
      </trkpt>
      <trkpt lat="43.46671" lon="1.15023">
        <ele>232.91393594481</ele>
        <time>2019-10-30T13:37:23Z</time>
      </trkpt>
      <trkpt lat="43.46668" lon="1.15029">
        <ele>232.78552091366</ele>
        <time>2019-10-30T13:37:28Z</time>
      </trkpt>
      <trkpt lat="43.46665" lon="1.15033">
        <ele>232.70558017033</ele>
        <time>2019-10-30T13:37:31Z</time>
      </trkpt>
      <trkpt lat="43.46662" lon="1.15036">
        <ele>232.62312640455</ele>
        <time>2019-10-30T13:37:34Z</time>
      </trkpt>
      <trkpt lat="43.46657" lon="1.1504">
        <ele>232.51054301778</ele>
        <time>2019-10-30T13:37:38Z</time>
      </trkpt>
      <trkpt lat="43.4665" lon="1.15045">
        <ele>232.35</ele>
        <time>2019-10-30T13:37:45Z</time>
      </trkpt>
      <trkpt lat="43.46626" lon="1.15059">
        <ele>231.89381077826</ele>
        <time>2019-10-30T13:38:06Z</time>
      </trkpt>
      <trkpt lat="43.46618" lon="1.15064">
        <ele>231.70413209701</ele>
        <time>2019-10-30T13:38:12Z</time>
      </trkpt>
      <trkpt lat="43.46608" lon="1.15071">
        <ele>231.3848623175</ele>
        <time>2019-10-30T13:38:21Z</time>
      </trkpt>
      <trkpt lat="43.46589" lon="1.15087">
        <ele>230.33801841138</ele>
        <time>2019-10-30T13:38:40Z</time>
      </trkpt>
      <trkpt lat="43.46571" lon="1.151">
        <ele>228.75</ele>
        <time>2019-10-30T13:38:56Z</time>
      </trkpt>
      <trkpt lat="43.46554" lon="1.15115">
        <ele>226.45278921746</ele>
        <time>2019-10-30T13:39:12Z</time>
      </trkpt>
      <trkpt lat="43.46549" lon="1.15119">
        <ele>225.73987595549</ele>
        <time>2019-10-30T13:39:17Z</time>
      </trkpt>
      <trkpt lat="43.46542" lon="1.15123">
        <ele>224.8395892319</ele>
        <time>2019-10-30T13:39:23Z</time>
      </trkpt>
      <trkpt lat="43.46539" lon="1.15124">
        <ele>224.48812794832</ele>
        <time>2019-10-30T13:39:25Z</time>
      </trkpt>
      <trkpt lat="43.46537" lon="1.15127">
        <ele>224.15950021638</ele>
        <time>2019-10-30T13:39:27Z</time>
      </trkpt>
      <trkpt lat="43.46534" lon="1.1513">
        <ele>223.74940832689</ele>
        <time>2019-10-30T13:39:30Z</time>
      </trkpt>
      <trkpt lat="43.46526" lon="1.15138">
        <ele>222.84895592932</ele>
        <time>2019-10-30T13:39:38Z</time>
      </trkpt>
      <trkpt lat="43.46524" lon="1.1514">
        <ele>222.65</ele>
        <time>2019-10-30T13:39:40Z</time>
      </trkpt>
      <trkpt lat="43.46485" lon="1.14991">
        <ele>225.31666359868</ele>
        <time>2019-10-30T13:41:12Z</time>
      </trkpt>
    </trkseg>
  </trk>
  <trk>
    <name><![CDATA[Freestyle]]></name>
    <trkseg>
      <trkpt lat="43.46485" lon="1.14991">
        <ele>225.32</ele>
        <time>2019-10-30T13:41:13Z</time>
      </trkpt>
      <trkpt lat="43.4646" lon="1.14885">
        <ele>226.52</ele>
        <time>2019-10-30T13:42:17Z</time>
      </trkpt>
      <trkpt lat="43.46455" lon="1.14866">
        <ele>226.34</ele>
        <time>2019-10-30T13:42:29Z</time>
      </trkpt>
      <trkpt lat="43.46429" lon="1.14735">
        <ele>225.13</ele>
        <time>2019-10-30T13:43:48Z</time>
      </trkpt>
      <trkpt lat="43.46401" lon="1.14603">
        <ele>224.67</ele>
        <time>2019-10-30T13:45:09Z</time>
      </trkpt>
      <trkpt lat="43.4639" lon="1.1455">
        <ele>225.20699447411</ele>
        <time>2019-10-30T13:45:40Z</time>
      </trkpt>
      <trkpt lat="43.46386" lon="1.14536">
        <ele>225.40277686463</ele>
        <time>2019-10-30T13:45:49Z</time>
      </trkpt>
      <trkpt lat="43.46379" lon="1.14514">
        <ele>225.72777228462</ele>
        <time>2019-10-30T13:46:03Z</time>
      </trkpt>
      <trkpt lat="43.46376" lon="1.14503">
        <ele>225.89062586467</ele>
        <time>2019-10-30T13:46:10Z</time>
      </trkpt>
      <trkpt lat="43.46372" lon="1.14486">
        <ele>226.10144983164</ele>
        <time>2019-10-30T13:46:21Z</time>
      </trkpt>
      <trkpt lat="43.46367" lon="1.14464">
        <ele>226.32</ele>
        <time>2019-10-30T13:46:34Z</time>
      </trkpt>
      <trkpt lat="43.46365" lon="1.14454">
        <ele>226.39539582948</ele>
        <time>2019-10-30T13:46:40Z</time>
      </trkpt>
      <trkpt lat="43.46361" lon="1.14442">
        <ele>226.46816159733</ele>
        <time>2019-10-30T13:46:47Z</time>
      </trkpt>
      <trkpt lat="43.46357" lon="1.14433">
        <ele>226.52696634311</ele>
        <time>2019-10-30T13:46:53Z</time>
      </trkpt>
      <trkpt lat="43.46355" lon="1.14429">
        <ele>226.55781742427</ele>
        <time>2019-10-30T13:46:57Z</time>
      </trkpt>
      <trkpt lat="43.4635" lon="1.1442">
        <ele>226.62823974013</ele>
        <time>2019-10-30T13:47:03Z</time>
      </trkpt>
      <trkpt lat="43.46346" lon="1.14415">
        <ele>226.68325501393</ele>
        <time>2019-10-30T13:47:07Z</time>
      </trkpt>
      <trkpt lat="43.4634" lon="1.14403">
        <ele>226.81967081288</ele>
        <time>2019-10-30T13:47:16Z</time>
      </trkpt>
      <trkpt lat="43.4633" lon="1.14382">
        <ele>227.19932104802</ele>
        <time>2019-10-30T13:47:30Z</time>
      </trkpt>
      <trkpt lat="43.46325" lon="1.14372">
        <ele>227.48</ele>
        <time>2019-10-30T13:47:38Z</time>
      </trkpt>
      <trkpt lat="43.46317" lon="1.14353">
        <ele>228.12487205821</ele>
        <time>2019-10-30T13:47:50Z</time>
      </trkpt>
      <trkpt lat="43.46315" lon="1.14346">
        <ele>228.37690445253</ele>
        <time>2019-10-30T13:47:55Z</time>
      </trkpt>
      <trkpt lat="43.46314" lon="1.14341">
        <ele>228.56701377583</ele>
        <time>2019-10-30T13:47:58Z</time>
      </trkpt>
      <trkpt lat="43.46313" lon="1.14337">
        <ele>228.75290548702</ele>
        <time>2019-10-30T13:48:00Z</time>
      </trkpt>
      <trkpt lat="43.46312" lon="1.14327">
        <ele>229.13591750986</ele>
        <time>2019-10-30T13:48:06Z</time>
      </trkpt>
      <trkpt lat="43.46311" lon="1.1432">
        <ele>229.40648273173</ele>
        <time>2019-10-30T13:48:10Z</time>
      </trkpt>
      <trkpt lat="43.46307" lon="1.14306">
        <ele>229.98321611794</ele>
        <time>2019-10-30T13:48:19Z</time>
      </trkpt>
      <trkpt lat="43.46307" lon="1.14303">
        <ele>230.11920649074</ele>
        <time>2019-10-30T13:48:21Z</time>
      </trkpt>
      <trkpt lat="43.46306" lon="1.14293">
        <ele>230.50436078693</ele>
        <time>2019-10-30T13:48:27Z</time>
      </trkpt>
      <trkpt lat="43.46306" lon="1.14283">
        <ele>230.84194270821</ele>
        <time>2019-10-30T13:48:32Z</time>
      </trkpt>
      <trkpt lat="43.46305" lon="1.14279">
        <ele>231.00667432584</ele>
        <time>2019-10-30T13:48:35Z</time>
      </trkpt>
      <trkpt lat="43.46305" lon="1.14275">
        <ele>231.11581196109</ele>
        <time>2019-10-30T13:48:37Z</time>
      </trkpt>
      <trkpt lat="43.46303" lon="1.14269">
        <ele>231.32601700647</ele>
        <time>2019-10-30T13:48:41Z</time>
      </trkpt>
      <trkpt lat="43.46302" lon="1.14263">
        <ele>231.51</ele>
        <time>2019-10-30T13:48:45Z</time>
      </trkpt>
      <trkpt lat="43.46301" lon="1.14254">
        <ele>231.71405156885</ele>
        <time>2019-10-30T13:48:50Z</time>
      </trkpt>
      <trkpt lat="43.46301" lon="1.14234">
        <ele>232.09262520931</ele>
        <time>2019-10-30T13:49:01Z</time>
      </trkpt>
      <trkpt lat="43.46299" lon="1.14206">
        <ele>232.39238051401</ele>
        <time>2019-10-30T13:49:18Z</time>
      </trkpt>
      <trkpt lat="43.46299" lon="1.14194">
        <ele>232.45315853702</ele>
        <time>2019-10-30T13:49:25Z</time>
      </trkpt>
      <trkpt lat="43.463" lon="1.14184">
        <ele>232.47936439082</ele>
        <time>2019-10-30T13:49:31Z</time>
      </trkpt>
      <trkpt lat="43.46302" lon="1.14165">
        <ele>232.48561641683</ele>
        <time>2019-10-30T13:49:42Z</time>
      </trkpt>
      <trkpt lat="43.46303" lon="1.14153">
        <ele>232.46952457627</ele>
        <time>2019-10-30T13:49:49Z</time>
      </trkpt>
      <trkpt lat="43.46303" lon="1.14148">
        <ele>232.46</ele>
        <time>2019-10-30T13:49:52Z</time>
      </trkpt>
      <trkpt lat="43.46306" lon="1.14137">
        <ele>232.43584631633</ele>
        <time>2019-10-30T13:49:59Z</time>
      </trkpt>
      <trkpt lat="43.46309" lon="1.14123">
        <ele>232.40562313864</ele>
        <time>2019-10-30T13:50:07Z</time>
      </trkpt>
      <trkpt lat="43.4631" lon="1.14117">
        <ele>232.3941691821</ele>
        <time>2019-10-30T13:50:11Z</time>
      </trkpt>
      <trkpt lat="43.46315" lon="1.141">
        <ele>232.37945468961</ele>
        <time>2019-10-30T13:50:21Z</time>
      </trkpt>
      <trkpt lat="43.4632" lon="1.14079">
        <ele>232.41595176272</ele>
        <time>2019-10-30T13:50:34Z</time>
      </trkpt>
      <trkpt lat="43.46324" lon="1.14066">
        <ele>232.48456647464</ele>
        <time>2019-10-30T13:50:43Z</time>
      </trkpt>
      <trkpt lat="43.46327" lon="1.14059">
        <ele>232.54227199227</ele>
        <time>2019-10-30T13:50:47Z</time>
      </trkpt>
      <trkpt lat="43.46328" lon="1.14055">
        <ele>232.58223369994</ele>
        <time>2019-10-30T13:50:50Z</time>
      </trkpt>
      <trkpt lat="43.46328" lon="1.14054">
        <ele>232.59283281331</ele>
        <time>2019-10-30T13:50:50Z</time>
      </trkpt>
      <trkpt lat="43.46327" lon="1.14051">
        <ele>232.62930765167</ele>
        <time>2019-10-30T13:50:53Z</time>
      </trkpt>
      <trkpt lat="43.46326" lon="1.14049">
        <ele>232.65519085795</ele>
        <time>2019-10-30T13:50:54Z</time>
      </trkpt>
      <trkpt lat="43.46326" lon="1.14047">
        <ele>232.66910453059</ele>
        <time>2019-10-30T13:50:55Z</time>
      </trkpt>
      <trkpt lat="43.46327" lon="1.14045">
        <ele>232.7</ele>
        <time>2019-10-30T13:50:56Z</time>
      </trkpt>
      <trkpt lat="43.4633" lon="1.14038">
        <ele>232.81271866742</ele>
        <time>2019-10-30T13:51:01Z</time>
      </trkpt>
      <trkpt lat="43.46331" lon="1.14035">
        <ele>232.87054487444</ele>
        <time>2019-10-30T13:51:03Z</time>
      </trkpt>
      <trkpt lat="43.46335" lon="1.14021">
        <ele>233.14162484842</ele>
        <time>2019-10-30T13:51:12Z</time>
      </trkpt>
      <trkpt lat="43.46338" lon="1.14011">
        <ele>233.36240033838</ele>
        <time>2019-10-30T13:51:18Z</time>
      </trkpt>
      <trkpt lat="43.46343" lon="1.13989">
        <ele>233.96913913199</ele>
        <time>2019-10-30T13:51:31Z</time>
      </trkpt>
      <trkpt lat="43.46349" lon="1.13969">
        <ele>234.63459194765</ele>
        <time>2019-10-30T13:51:44Z</time>
      </trkpt>
      <trkpt lat="43.46355" lon="1.13943">
        <ele>235.66</ele>
        <time>2019-10-30T13:52:00Z</time>
      </trkpt>
      <trkpt lat="43.46365" lon="1.13908">
        <ele>237.23013647397</ele>
        <time>2019-10-30T13:52:22Z</time>
      </trkpt>
      <trkpt lat="43.46373" lon="1.13876">
        <ele>238.59760648945</ele>
        <time>2019-10-30T13:52:41Z</time>
      </trkpt>
      <trkpt lat="43.46379" lon="1.1385">
        <ele>239.5</ele>
        <time>2019-10-30T13:52:57Z</time>
      </trkpt>
      <trkpt lat="43.46384" lon="1.13823">
        <ele>240.14026919672</ele>
        <time>2019-10-30T13:53:14Z</time>
      </trkpt>
      <trkpt lat="43.46387" lon="1.13814">
        <ele>240.29325884637</ele>
        <time>2019-10-30T13:53:19Z</time>
      </trkpt>
      <trkpt lat="43.46388" lon="1.1381">
        <ele>240.360876985</ele>
        <time>2019-10-30T13:53:22Z</time>
      </trkpt>
      <trkpt lat="43.46392" lon="1.13804">
        <ele>240.45999390777</ele>
        <time>2019-10-30T13:53:27Z</time>
      </trkpt>
      <trkpt lat="43.46394" lon="1.13801">
        <ele>240.51224480252</ele>
        <time>2019-10-30T13:53:29Z</time>
      </trkpt>
      <trkpt lat="43.46396" lon="1.13799">
        <ele>240.54333489409</ele>
        <time>2019-10-30T13:53:31Z</time>
      </trkpt>
      <trkpt lat="43.46398" lon="1.13798">
        <ele>240.57529701178</ele>
        <time>2019-10-30T13:53:33Z</time>
      </trkpt>
      <trkpt lat="43.46402" lon="1.13797">
        <ele>240.61976841334</ele>
        <time>2019-10-30T13:53:35Z</time>
      </trkpt>
      <trkpt lat="43.46405" lon="1.13797">
        <ele>240.66413635508</ele>
        <time>2019-10-30T13:53:38Z</time>
      </trkpt>
      <trkpt lat="43.4641" lon="1.13798">
        <ele>240.72251481311</ele>
        <time>2019-10-30T13:53:42Z</time>
      </trkpt>
      <trkpt lat="43.46418" lon="1.138">
        <ele>240.80324263405</ele>
        <time>2019-10-30T13:53:49Z</time>
      </trkpt>
      <trkpt lat="43.46431" lon="1.13804">
        <ele>240.93427656617</ele>
        <time>2019-10-30T13:53:59Z</time>
      </trkpt>
      <trkpt lat="43.46447" lon="1.13807">
        <ele>241.13</ele>
        <time>2019-10-30T13:54:13Z</time>
      </trkpt>
      <trkpt lat="43.46458" lon="1.13808">
        <ele>241.28745060127</ele>
        <time>2019-10-30T13:54:21Z</time>
      </trkpt>
      <trkpt lat="43.46462" lon="1.13808">
        <ele>241.3557626514</ele>
        <time>2019-10-30T13:54:24Z</time>
      </trkpt>
      <trkpt lat="43.46464" lon="1.13808">
        <ele>241.40267211061</ele>
        <time>2019-10-30T13:54:26Z</time>
      </trkpt>
      <trkpt lat="43.46465" lon="1.13808">
        <ele>241.4266419443</ele>
        <time>2019-10-30T13:54:27Z</time>
      </trkpt>
      <trkpt lat="43.46468" lon="1.13807">
        <ele>241.47373354448</ele>
        <time>2019-10-30T13:54:29Z</time>
      </trkpt>
      <trkpt lat="43.4647" lon="1.13805">
        <ele>241.5217087864</ele>
        <time>2019-10-30T13:54:31Z</time>
      </trkpt>
      <trkpt lat="43.46471" lon="1.13804">
        <ele>241.54773488059</ele>
        <time>2019-10-30T13:54:32Z</time>
      </trkpt>
      <trkpt lat="43.46472" lon="1.13802">
        <ele>241.60037225284</ele>
        <time>2019-10-30T13:54:34Z</time>
      </trkpt>
      <trkpt lat="43.46475" lon="1.13797">
        <ele>241.71089779058</ele>
        <time>2019-10-30T13:54:37Z</time>
      </trkpt>
      <trkpt lat="43.46476" lon="1.13792">
        <ele>241.79866493157</ele>
        <time>2019-10-30T13:54:40Z</time>
      </trkpt>
      <trkpt lat="43.46476" lon="1.13789">
        <ele>241.8587388708</ele>
        <time>2019-10-30T13:54:42Z</time>
      </trkpt>
      <trkpt lat="43.46476" lon="1.13783">
        <ele>241.98510900192</ele>
        <time>2019-10-30T13:54:45Z</time>
      </trkpt>
      <trkpt lat="43.46475" lon="1.13779">
        <ele>242.08573203616</ele>
        <time>2019-10-30T13:54:48Z</time>
      </trkpt>
      <trkpt lat="43.46474" lon="1.13774">
        <ele>242.22315488268</ele>
        <time>2019-10-30T13:54:51Z</time>
      </trkpt>
      <trkpt lat="43.4647" lon="1.13759">
        <ele>242.65</ele>
        <time>2019-10-30T13:55:00Z</time>
      </trkpt>
      <trkpt lat="43.46462" lon="1.13724">
        <ele>243.93606242582</ele>
        <time>2019-10-30T13:55:22Z</time>
      </trkpt>
      <trkpt lat="43.46457" lon="1.13701">
        <ele>244.90934209464</ele>
        <time>2019-10-30T13:55:36Z</time>
      </trkpt>
      <trkpt lat="43.46451" lon="1.13674">
        <ele>246.08370583933</ele>
        <time>2019-10-30T13:55:52Z</time>
      </trkpt>
      <trkpt lat="43.46448" lon="1.1366">
        <ele>246.68970886795</ele>
        <time>2019-10-30T13:56:01Z</time>
      </trkpt>
      <trkpt lat="43.46447" lon="1.13647">
        <ele>247.18165802409</ele>
        <time>2019-10-30T13:56:08Z</time>
      </trkpt>
      <trkpt lat="43.46446" lon="1.13628">
        <ele>247.88</ele>
        <time>2019-10-30T13:56:19Z</time>
      </trkpt>
      <trkpt lat="43.46444" lon="1.13617">
        <ele>248.25736513483</ele>
        <time>2019-10-30T13:56:26Z</time>
      </trkpt>
      <trkpt lat="43.46441" lon="1.13588">
        <ele>249.15081150201</ele>
        <time>2019-10-30T13:56:43Z</time>
      </trkpt>
      <trkpt lat="43.4644" lon="1.13579">
        <ele>249.45175158769</ele>
        <time>2019-10-30T13:56:49Z</time>
      </trkpt>
      <trkpt lat="43.4644" lon="1.13572">
        <ele>249.67619156304</ele>
        <time>2019-10-30T13:56:53Z</time>
      </trkpt>
      <trkpt lat="43.4644" lon="1.13566">
        <ele>249.86733828535</ele>
        <time>2019-10-30T13:56:56Z</time>
      </trkpt>
      <trkpt lat="43.46441" lon="1.13559">
        <ele>250.12643959391</ele>
        <time>2019-10-30T13:57:00Z</time>
      </trkpt>
      <trkpt lat="43.46443" lon="1.13552">
        <ele>250.41776436309</ele>
        <time>2019-10-30T13:57:05Z</time>
      </trkpt>
      <trkpt lat="43.46446" lon="1.13538">
        <ele>251.04055639419</ele>
        <time>2019-10-30T13:57:13Z</time>
      </trkpt>
      <trkpt lat="43.46452" lon="1.13522">
        <ele>251.98</ele>
        <time>2019-10-30T13:57:24Z</time>
      </trkpt>
      <trkpt lat="43.4646" lon="1.13499">
        <ele>253.66441104927</ele>
        <time>2019-10-30T13:57:39Z</time>
      </trkpt>
      <trkpt lat="43.46466" lon="1.13481">
        <ele>255.09714088231</ele>
        <time>2019-10-30T13:57:50Z</time>
      </trkpt>
      <trkpt lat="43.4647" lon="1.13472">
        <ele>255.94066936126</ele>
        <time>2019-10-30T13:57:56Z</time>
      </trkpt>
      <trkpt lat="43.46479" lon="1.13444">
        <ele>258.21230200649</ele>
        <time>2019-10-30T13:58:14Z</time>
      </trkpt>
      <trkpt lat="43.46484" lon="1.13429">
        <ele>259.30520710177</ele>
        <time>2019-10-30T13:58:23Z</time>
      </trkpt>
      <trkpt lat="43.46489" lon="1.13415">
        <ele>260.24</ele>
        <time>2019-10-30T13:58:33Z</time>
      </trkpt>
      <trkpt lat="43.46496" lon="1.1339">
        <ele>261.34132054515</ele>
        <time>2019-10-30T13:58:48Z</time>
      </trkpt>
      <trkpt lat="43.465" lon="1.13379">
        <ele>261.68074283182</ele>
        <time>2019-10-30T13:58:55Z</time>
      </trkpt>
      <trkpt lat="43.46503" lon="1.13369">
        <ele>261.96350043044</ele>
        <time>2019-10-30T13:59:02Z</time>
      </trkpt>
      <trkpt lat="43.46509" lon="1.13354">
        <ele>262.27706484694</ele>
        <time>2019-10-30T13:59:12Z</time>
      </trkpt>
      <trkpt lat="43.46512" lon="1.13347">
        <ele>262.4001653895</ele>
        <time>2019-10-30T13:59:16Z</time>
      </trkpt>
      <trkpt lat="43.46513" lon="1.1334">
        <ele>262.50709510637</ele>
        <time>2019-10-30T13:59:21Z</time>
      </trkpt>
      <trkpt lat="43.46517" lon="1.13323">
        <ele>262.72648305208</ele>
        <time>2019-10-30T13:59:31Z</time>
      </trkpt>
      <trkpt lat="43.46519" lon="1.13318">
        <ele>262.81</ele>
        <time>2019-10-30T13:59:34Z</time>
      </trkpt>
      <trkpt lat="43.46525" lon="1.13303">
        <ele>263.04424024371</ele>
        <time>2019-10-30T13:59:44Z</time>
      </trkpt>
      <trkpt lat="43.46527" lon="1.13299">
        <ele>263.11706196203</ele>
        <time>2019-10-30T13:59:47Z</time>
      </trkpt>
      <trkpt lat="43.46529" lon="1.13291">
        <ele>263.23966208801</ele>
        <time>2019-10-30T13:59:52Z</time>
      </trkpt>
      <trkpt lat="43.46533" lon="1.13277">
        <ele>263.46934572181</ele>
        <time>2019-10-30T14:00:01Z</time>
      </trkpt>
      <trkpt lat="43.46538" lon="1.1326">
        <ele>263.76250897442</ele>
        <time>2019-10-30T14:00:11Z</time>
      </trkpt>
      <trkpt lat="43.46541" lon="1.13248">
        <ele>263.96903503701</ele>
        <time>2019-10-30T14:00:19Z</time>
      </trkpt>
      <trkpt lat="43.46546" lon="1.13225">
        <ele>264.33405763114</ele>
        <time>2019-10-30T14:00:33Z</time>
      </trkpt>
      <trkpt lat="43.46548" lon="1.13216">
        <ele>264.47</ele>
        <time>2019-10-30T14:00:39Z</time>
      </trkpt>
      <trkpt lat="43.46551" lon="1.13207">
        <ele>264.6001799902</ele>
        <time>2019-10-30T14:00:44Z</time>
      </trkpt>
      <trkpt lat="43.4656" lon="1.13184">
        <ele>264.90995688481</ele>
        <time>2019-10-30T14:00:59Z</time>
      </trkpt>
      <trkpt lat="43.46562" lon="1.13176">
        <ele>264.99080561191</ele>
        <time>2019-10-30T14:01:04Z</time>
      </trkpt>
      <trkpt lat="43.46567" lon="1.1316">
        <ele>265.14064830044</ele>
        <time>2019-10-30T14:01:15Z</time>
      </trkpt>
      <trkpt lat="43.46572" lon="1.13147">
        <ele>265.22587319074</ele>
        <time>2019-10-30T14:01:23Z</time>
      </trkpt>
      <trkpt lat="43.46581" lon="1.13125">
        <ele>265.28443477559</ele>
        <time>2019-10-30T14:01:38Z</time>
      </trkpt>
      <trkpt lat="43.46581" lon="1.13122">
        <ele>265.28354686991</ele>
        <time>2019-10-30T14:01:39Z</time>
      </trkpt>
      <trkpt lat="43.46581" lon="1.13118">
        <ele>265.27911543035</ele>
        <time>2019-10-30T14:01:42Z</time>
      </trkpt>
      <trkpt lat="43.46581" lon="1.13116">
        <ele>265.27680995759</ele>
        <time>2019-10-30T14:01:43Z</time>
      </trkpt>
      <trkpt lat="43.46582" lon="1.13113">
        <ele>265.27</ele>
        <time>2019-10-30T14:01:45Z</time>
      </trkpt>
      <trkpt lat="43.46591" lon="1.13093">
        <ele>265.15523957023</ele>
        <time>2019-10-30T14:01:59Z</time>
      </trkpt>
      <trkpt lat="43.46608" lon="1.13062">
        <ele>264.86159253203</ele>
        <time>2019-10-30T14:02:21Z</time>
      </trkpt>
      <trkpt lat="43.46617" lon="1.13046">
        <ele>264.7218946553</ele>
        <time>2019-10-30T14:02:33Z</time>
      </trkpt>
      <trkpt lat="43.46622" lon="1.13036">
        <ele>264.66505453532</ele>
        <time>2019-10-30T14:02:40Z</time>
      </trkpt>
      <trkpt lat="43.46624" lon="1.1303">
        <ele>264.64399187777</ele>
        <time>2019-10-30T14:02:44Z</time>
      </trkpt>
      <trkpt lat="43.46628" lon="1.13019">
        <ele>264.63</ele>
        <time>2019-10-30T14:02:51Z</time>
      </trkpt>
      <trkpt lat="43.46633" lon="1.13003">
        <ele>264.67100037119</ele>
        <time>2019-10-30T14:03:01Z</time>
      </trkpt>
      <trkpt lat="43.4664" lon="1.12981">
        <ele>264.79906466527</ele>
        <time>2019-10-30T14:03:15Z</time>
      </trkpt>
      <trkpt lat="43.46642" lon="1.12975">
        <ele>264.83103287851</ele>
        <time>2019-10-30T14:03:19Z</time>
      </trkpt>
      <trkpt lat="43.46644" lon="1.12966">
        <ele>264.87593546762</ele>
        <time>2019-10-30T14:03:24Z</time>
      </trkpt>
      <trkpt lat="43.46645" lon="1.12962">
        <ele>264.89395444248</ele>
        <time>2019-10-30T14:03:27Z</time>
      </trkpt>
      <trkpt lat="43.46647" lon="1.12959">
        <ele>264.90840692088</ele>
        <time>2019-10-30T14:03:29Z</time>
      </trkpt>
      <trkpt lat="43.4665" lon="1.12956">
        <ele>264.91812742186</ele>
        <time>2019-10-30T14:03:32Z</time>
      </trkpt>
      <trkpt lat="43.46652" lon="1.12955">
        <ele>264.92344680613</ele>
        <time>2019-10-30T14:03:34Z</time>
      </trkpt>
      <trkpt lat="43.46655" lon="1.12955">
        <ele>264.92614646706</ele>
        <time>2019-10-30T14:03:36Z</time>
      </trkpt>
      <trkpt lat="43.46654" lon="1.12955">
        <ele>264.92624331565</ele>
        <time>2019-10-30T14:03:36Z</time>
      </trkpt>
      <trkpt lat="43.46658" lon="1.12952">
        <ele>264.92215565862</ele>
        <time>2019-10-30T14:03:40Z</time>
      </trkpt>
      <trkpt lat="43.4666" lon="1.12951">
        <ele>264.91699371003</ele>
        <time>2019-10-30T14:03:41Z</time>
      </trkpt>
      <trkpt lat="43.46661" lon="1.12951">
        <ele>264.91109698374</ele>
        <time>2019-10-30T14:03:42Z</time>
      </trkpt>
      <trkpt lat="43.46662" lon="1.1295">
        <ele>264.90741529404</ele>
        <time>2019-10-30T14:03:43Z</time>
      </trkpt>
      <trkpt lat="43.46665" lon="1.12951">
        <ele>264.89367697919</ele>
        <time>2019-10-30T14:03:45Z</time>
      </trkpt>
      <trkpt lat="43.46669" lon="1.12953">
        <ele>264.85511098298</ele>
        <time>2019-10-30T14:03:49Z</time>
      </trkpt>
      <trkpt lat="43.46679" lon="1.12955">
        <ele>264.71</ele>
        <time>2019-10-30T14:03:57Z</time>
      </trkpt>
      <trkpt lat="43.46684" lon="1.12957">
        <ele>264.59784293945</ele>
        <time>2019-10-30T14:04:01Z</time>
      </trkpt>
      <trkpt lat="43.46688" lon="1.12958">
        <ele>264.50092624575</ele>
        <time>2019-10-30T14:04:04Z</time>
      </trkpt>
      <trkpt lat="43.46692" lon="1.12961">
        <ele>264.36182827173</ele>
        <time>2019-10-30T14:04:08Z</time>
      </trkpt>
      <trkpt lat="43.46699" lon="1.12966">
        <ele>264.11866180535</ele>
        <time>2019-10-30T14:04:14Z</time>
      </trkpt>
      <trkpt lat="43.46703" lon="1.12968">
        <ele>264.000345282</ele>
        <time>2019-10-30T14:04:17Z</time>
      </trkpt>
      <trkpt lat="43.46708" lon="1.1297">
        <ele>263.82383084415</ele>
        <time>2019-10-30T14:04:22Z</time>
      </trkpt>
      <trkpt lat="43.46722" lon="1.12973">
        <ele>263.38215463653</ele>
        <time>2019-10-30T14:04:33Z</time>
      </trkpt>
      <trkpt lat="43.46726" lon="1.12975">
        <ele>263.28624845582</ele>
        <time>2019-10-30T14:04:36Z</time>
      </trkpt>
      <trkpt lat="43.4673" lon="1.12976">
        <ele>263.20409152478</ele>
        <time>2019-10-30T14:04:39Z</time>
      </trkpt>
      <trkpt lat="43.46742" lon="1.12984">
        <ele>263.02709093928</ele>
        <time>2019-10-30T14:04:50Z</time>
      </trkpt>
      <trkpt lat="43.46746" lon="1.12986">
        <ele>263.02044179809</ele>
        <time>2019-10-30T14:04:54Z</time>
      </trkpt>
      <trkpt lat="43.46751" lon="1.12988">
        <ele>263.05</ele>
        <time>2019-10-30T14:04:58Z</time>
      </trkpt>
      <trkpt lat="43.46762" lon="1.1299">
        <ele>263.26344729532</ele>
        <time>2019-10-30T14:05:07Z</time>
      </trkpt>
      <trkpt lat="43.46777" lon="1.12995">
        <ele>263.82927346298</ele>
        <time>2019-10-30T14:05:19Z</time>
      </trkpt>
      <trkpt lat="43.46783" lon="1.12996">
        <ele>264.10973769725</ele>
        <time>2019-10-30T14:05:23Z</time>
      </trkpt>
      <trkpt lat="43.46788" lon="1.12999">
        <ele>264.40970852786</ele>
        <time>2019-10-30T14:05:28Z</time>
      </trkpt>
      <trkpt lat="43.46791" lon="1.13">
        <ele>264.60824357644</ele>
        <time>2019-10-30T14:05:31Z</time>
      </trkpt>
      <trkpt lat="43.46795" lon="1.13001">
        <ele>264.81779036465</ele>
        <time>2019-10-30T14:05:34Z</time>
      </trkpt>
      <trkpt lat="43.46799" lon="1.13001">
        <ele>265.03074729209</ele>
        <time>2019-10-30T14:05:37Z</time>
      </trkpt>
      <trkpt lat="43.46808" lon="1.12999">
        <ele>265.58688599284</ele>
        <time>2019-10-30T14:05:45Z</time>
      </trkpt>
      <trkpt lat="43.46812" lon="1.12999">
        <ele>265.80267896254</ele>
        <time>2019-10-30T14:05:48Z</time>
      </trkpt>
      <trkpt lat="43.46816" lon="1.12999">
        <ele>266.02119419492</ele>
        <time>2019-10-30T14:05:51Z</time>
      </trkpt>
      <trkpt lat="43.46827" lon="1.13001">
        <ele>266.63423921227</ele>
        <time>2019-10-30T14:06:00Z</time>
      </trkpt>
      <trkpt lat="43.46834" lon="1.13002">
        <ele>266.96</ele>
        <time>2019-10-30T14:06:05Z</time>
      </trkpt>
      <trkpt lat="43.46842" lon="1.13002">
        <ele>267.31201152287</ele>
        <time>2019-10-30T14:06:12Z</time>
      </trkpt>
      <trkpt lat="43.4686" lon="1.13001">
        <ele>267.8509672975</ele>
        <time>2019-10-30T14:06:26Z</time>
      </trkpt>
      <trkpt lat="43.4687" lon="1.13001">
        <ele>268.03625145479</ele>
        <time>2019-10-30T14:06:34Z</time>
      </trkpt>
      <trkpt lat="43.46879" lon="1.13001">
        <ele>268.12494829161</ele>
        <time>2019-10-30T14:06:42Z</time>
      </trkpt>
      <trkpt lat="43.46897" lon="1.13002">
        <ele>268.09694127497</ele>
        <time>2019-10-30T14:06:56Z</time>
      </trkpt>
      <trkpt lat="43.46905" lon="1.13003">
        <ele>267.99628219921</ele>
        <time>2019-10-30T14:07:02Z</time>
      </trkpt>
      <trkpt lat="43.46913" lon="1.13005">
        <ele>267.84</ele>
        <time>2019-10-30T14:07:09Z</time>
      </trkpt>
      <trkpt lat="43.46925" lon="1.13008">
        <ele>267.52265530719</ele>
        <time>2019-10-30T14:07:18Z</time>
      </trkpt>
      <trkpt lat="43.46938" lon="1.13013">
        <ele>266.99631222644</ele>
        <time>2019-10-30T14:07:30Z</time>
      </trkpt>
      <trkpt lat="43.46945" lon="1.13016">
        <ele>266.68419827334</ele>
        <time>2019-10-30T14:07:35Z</time>
      </trkpt>
      <trkpt lat="43.46953" lon="1.13019">
        <ele>266.28072101634</ele>
        <time>2019-10-30T14:07:41Z</time>
      </trkpt>
      <trkpt lat="43.4696" lon="1.13024">
        <ele>265.80692639041</ele>
        <time>2019-10-30T14:07:48Z</time>
      </trkpt>
      <trkpt lat="43.46972" lon="1.13033">
        <ele>264.91370093823</ele>
        <time>2019-10-30T14:07:59Z</time>
      </trkpt>
      <trkpt lat="43.46978" lon="1.13037">
        <ele>264.46134005128</ele>
        <time>2019-10-30T14:08:04Z</time>
      </trkpt>
      <trkpt lat="43.46984" lon="1.1304">
        <ele>263.99458529025</ele>
        <time>2019-10-30T14:08:09Z</time>
      </trkpt>
      <trkpt lat="43.46991" lon="1.13043">
        <ele>263.37</ele>
        <time>2019-10-30T14:08:15Z</time>
      </trkpt>
      <trkpt lat="43.47026" lon="1.13057">
        <ele>260.00816332749</ele>
        <time>2019-10-30T14:08:44Z</time>
      </trkpt>
      <trkpt lat="43.47039" lon="1.13063">
        <ele>258.62311691382</ele>
        <time>2019-10-30T14:08:55Z</time>
      </trkpt>
      <trkpt lat="43.47056" lon="1.13071">
        <ele>256.8</ele>
        <time>2019-10-30T14:09:10Z</time>
      </trkpt>
      <trkpt lat="43.47088" lon="1.13086">
        <ele>253.71441308755</ele>
        <time>2019-10-30T14:09:37Z</time>
      </trkpt>
      <trkpt lat="43.47097" lon="1.1309">
        <ele>252.96205643482</ele>
        <time>2019-10-30T14:09:44Z</time>
      </trkpt>
      <trkpt lat="43.47105" lon="1.13094">
        <ele>252.21082649</ele>
        <time>2019-10-30T14:09:51Z</time>
      </trkpt>
      <trkpt lat="43.47122" lon="1.13104">
        <ele>250.63744890077</ele>
        <time>2019-10-30T14:10:06Z</time>
      </trkpt>
      <trkpt lat="43.47136" lon="1.1311">
        <ele>249.37</ele>
        <time>2019-10-30T14:10:19Z</time>
      </trkpt>
      <trkpt lat="43.47162" lon="1.13123">
        <ele>247.10795140504</ele>
        <time>2019-10-30T14:10:40Z</time>
      </trkpt>
      <trkpt lat="43.47178" lon="1.1313">
        <ele>245.73111804209</ele>
        <time>2019-10-30T14:10:54Z</time>
      </trkpt>
      <trkpt lat="43.47183" lon="1.13133">
        <ele>245.24911995972</ele>
        <time>2019-10-30T14:10:58Z</time>
      </trkpt>
      <trkpt lat="43.47193" lon="1.13136">
        <ele>244.48156127714</ele>
        <time>2019-10-30T14:11:06Z</time>
      </trkpt>
      <trkpt lat="43.47197" lon="1.13137">
        <ele>244.09666184719</ele>
        <time>2019-10-30T14:11:10Z</time>
      </trkpt>
      <trkpt lat="43.47203" lon="1.13138">
        <ele>243.6191409789</ele>
        <time>2019-10-30T14:11:15Z</time>
      </trkpt>
      <trkpt lat="43.4721" lon="1.13138">
        <ele>243.13795305322</ele>
        <time>2019-10-30T14:11:20Z</time>
      </trkpt>
      <trkpt lat="43.47216" lon="1.13138">
        <ele>242.66</ele>
        <time>2019-10-30T14:11:25Z</time>
      </trkpt>
      <trkpt lat="43.47237" lon="1.13137">
        <ele>241.18116426977</ele>
        <time>2019-10-30T14:11:42Z</time>
      </trkpt>
      <trkpt lat="43.47246" lon="1.13137">
        <ele>240.60281701214</ele>
        <time>2019-10-30T14:11:49Z</time>
      </trkpt>
      <trkpt lat="43.47251" lon="1.13138">
        <ele>240.28493131715</ele>
        <time>2019-10-30T14:11:53Z</time>
      </trkpt>
      <trkpt lat="43.47255" lon="1.13139">
        <ele>240.04809098693</ele>
        <time>2019-10-30T14:11:56Z</time>
      </trkpt>
      <trkpt lat="43.47258" lon="1.1314">
        <ele>239.81365246724</ele>
        <time>2019-10-30T14:11:59Z</time>
      </trkpt>
      <trkpt lat="43.47271" lon="1.13146">
        <ele>239.08291031462</ele>
        <time>2019-10-30T14:12:10Z</time>
      </trkpt>
      <trkpt lat="43.47276" lon="1.13148">
        <ele>238.81089236979</ele>
        <time>2019-10-30T14:12:14Z</time>
      </trkpt>
      <trkpt lat="43.47286" lon="1.13151">
        <ele>238.30555221006</ele>
        <time>2019-10-30T14:12:22Z</time>
      </trkpt>
      <trkpt lat="43.47293" lon="1.13153">
        <ele>237.96615130134</ele>
        <time>2019-10-30T14:12:28Z</time>
      </trkpt>
      <trkpt lat="43.47299" lon="1.13156">
        <ele>237.71</ele>
        <time>2019-10-30T14:12:33Z</time>
      </trkpt>
      <trkpt lat="43.47316" lon="1.13165">
        <ele>237.1152576619</ele>
        <time>2019-10-30T14:12:47Z</time>
      </trkpt>
      <trkpt lat="43.47337" lon="1.13176">
        <ele>236.57674629388</ele>
        <time>2019-10-30T14:13:05Z</time>
      </trkpt>
      <trkpt lat="43.47347" lon="1.13183">
        <ele>236.39382089192</ele>
        <time>2019-10-30T14:13:15Z</time>
      </trkpt>
      <trkpt lat="43.47351" lon="1.13186">
        <ele>236.33064120342</ele>
        <time>2019-10-30T14:13:18Z</time>
      </trkpt>
      <trkpt lat="43.47356" lon="1.1319">
        <ele>236.27694895657</ele>
        <time>2019-10-30T14:13:23Z</time>
      </trkpt>
      <trkpt lat="43.47361" lon="1.13194">
        <ele>236.22428578868</ele>
        <time>2019-10-30T14:13:27Z</time>
      </trkpt>
      <trkpt lat="43.47367" lon="1.13201">
        <ele>236.18</ele>
        <time>2019-10-30T14:13:34Z</time>
      </trkpt>
      <trkpt lat="43.47383" lon="1.13221">
        <ele>236.16229055702</ele>
        <time>2019-10-30T14:13:51Z</time>
      </trkpt>
      <trkpt lat="43.47395" lon="1.13235">
        <ele>236.2377389322</ele>
        <time>2019-10-30T14:14:04Z</time>
      </trkpt>
      <trkpt lat="43.47397" lon="1.13238">
        <ele>236.26040049991</ele>
        <time>2019-10-30T14:14:06Z</time>
      </trkpt>
      <trkpt lat="43.47399" lon="1.13241">
        <ele>236.27917296366</ele>
        <time>2019-10-30T14:14:08Z</time>
      </trkpt>
      <trkpt lat="43.47399" lon="1.13244">
        <ele>236.29933425432</ele>
        <time>2019-10-30T14:14:10Z</time>
      </trkpt>
      <trkpt lat="43.474" lon="1.13244">
        <ele>236.30568445157</ele>
        <time>2019-10-30T14:14:10Z</time>
      </trkpt>
      <trkpt lat="43.47401" lon="1.13245">
        <ele>236.31893320015</ele>
        <time>2019-10-30T14:14:12Z</time>
      </trkpt>
      <trkpt lat="43.47406" lon="1.13253">
        <ele>236.39798553328</ele>
        <time>2019-10-30T14:14:18Z</time>
      </trkpt>
      <trkpt lat="43.47407" lon="1.13255">
        <ele>236.41797274582</ele>
        <time>2019-10-30T14:14:19Z</time>
      </trkpt>
      <trkpt lat="43.47415" lon="1.13263">
        <ele>236.52842785124</ele>
        <time>2019-10-30T14:14:26Z</time>
      </trkpt>
      <trkpt lat="43.47418" lon="1.13265">
        <ele>236.57835084396</ele>
        <time>2019-10-30T14:14:30Z</time>
      </trkpt>
      <trkpt lat="43.47421" lon="1.13267">
        <ele>236.62885215145</ele>
        <time>2019-10-30T14:14:32Z</time>
      </trkpt>
      <trkpt lat="43.47426" lon="1.13269">
        <ele>236.6988920061</ele>
        <time>2019-10-30T14:14:36Z</time>
      </trkpt>
      <trkpt lat="43.47432" lon="1.13271">
        <ele>236.79</ele>
        <time>2019-10-30T14:14:41Z</time>
      </trkpt>
      <trkpt lat="43.47439" lon="1.13271">
        <ele>236.90526845324</ele>
        <time>2019-10-30T14:14:47Z</time>
      </trkpt>
      <trkpt lat="43.47445" lon="1.1327">
        <ele>237.0047304722</ele>
        <time>2019-10-30T14:14:52Z</time>
      </trkpt>
      <trkpt lat="43.47462" lon="1.13269">
        <ele>237.28962356288</ele>
        <time>2019-10-30T14:15:05Z</time>
      </trkpt>
      <trkpt lat="43.4747" lon="1.13267">
        <ele>237.42800038254</ele>
        <time>2019-10-30T14:15:12Z</time>
      </trkpt>
      <trkpt lat="43.47475" lon="1.13266">
        <ele>237.50636080324</ele>
        <time>2019-10-30T14:15:16Z</time>
      </trkpt>
      <trkpt lat="43.47489" lon="1.13261">
        <ele>237.72819464503</ele>
        <time>2019-10-30T14:15:28Z</time>
      </trkpt>
      <trkpt lat="43.47493" lon="1.1326">
        <ele>237.77642463684</ele>
        <time>2019-10-30T14:15:31Z</time>
      </trkpt>
      <trkpt lat="43.47514" lon="1.13257">
        <ele>237.99</ele>
        <time>2019-10-30T14:15:47Z</time>
      </trkpt>
      <trkpt lat="43.4752" lon="1.13256">
        <ele>238.02852003472</ele>
        <time>2019-10-30T14:15:52Z</time>
      </trkpt>
      <trkpt lat="43.47523" lon="1.13256">
        <ele>238.04626739189</ele>
        <time>2019-10-30T14:15:55Z</time>
      </trkpt>
      <trkpt lat="43.47525" lon="1.13257">
        <ele>238.0569283389</ele>
        <time>2019-10-30T14:15:57Z</time>
      </trkpt>
      <trkpt lat="43.47527" lon="1.13258">
        <ele>238.06651601828</ele>
        <time>2019-10-30T14:15:58Z</time>
      </trkpt>
      <trkpt lat="43.47529" lon="1.13259">
        <ele>238.07542418265</ele>
        <time>2019-10-30T14:16:00Z</time>
      </trkpt>
      <trkpt lat="43.4753" lon="1.1326">
        <ele>238.08306628111</ele>
        <time>2019-10-30T14:16:01Z</time>
      </trkpt>
      <trkpt lat="43.47531" lon="1.13262">
        <ele>238.08964192867</ele>
        <time>2019-10-30T14:16:02Z</time>
      </trkpt>
      <trkpt lat="43.47531" lon="1.13263">
        <ele>238.09591839782</ele>
        <time>2019-10-30T14:16:03Z</time>
      </trkpt>
      <trkpt lat="43.47532" lon="1.13268">
        <ele>238.11054798308</ele>
        <time>2019-10-30T14:16:06Z</time>
      </trkpt>
      <trkpt lat="43.47533" lon="1.13302">
        <ele>238.32469836303</ele>
        <time>2019-10-30T14:16:25Z</time>
      </trkpt>
      <trkpt lat="43.47533" lon="1.1334">
        <ele>239.03734695675</ele>
        <time>2019-10-30T14:16:48Z</time>
      </trkpt>
      <trkpt lat="43.47534" lon="1.13343">
        <ele>239.13226125669</ele>
        <time>2019-10-30T14:16:50Z</time>
      </trkpt>
      <trkpt lat="43.47535" lon="1.13346">
        <ele>239.24467996746</ele>
        <time>2019-10-30T14:16:52Z</time>
      </trkpt>
      <trkpt lat="43.47536" lon="1.13349">
        <ele>239.34931960609</ele>
        <time>2019-10-30T14:16:54Z</time>
      </trkpt>
      <trkpt lat="43.47537" lon="1.13351">
        <ele>239.43427528665</ele>
        <time>2019-10-30T14:16:55Z</time>
      </trkpt>
      <trkpt lat="43.47538" lon="1.13351">
        <ele>239.47</ele>
        <time>2019-10-30T14:16:55Z</time>
      </trkpt>
      <trkpt lat="43.47541" lon="1.13352">
        <ele>239.62956006069</ele>
        <time>2019-10-30T14:16:58Z</time>
      </trkpt>
      <trkpt lat="43.47544" lon="1.13354">
        <ele>239.82847966679</ele>
        <time>2019-10-30T14:17:01Z</time>
      </trkpt>
      <trkpt lat="43.4755" lon="1.1336">
        <ele>240.31302060515</ele>
        <time>2019-10-30T14:17:07Z</time>
      </trkpt>
      <trkpt lat="43.4756" lon="1.13368">
        <ele>241.17113208324</ele>
        <time>2019-10-30T14:17:16Z</time>
      </trkpt>
      <trkpt lat="43.4758" lon="1.13382">
        <ele>243.17500350302</ele>
        <time>2019-10-30T14:17:34Z</time>
      </trkpt>
      <trkpt lat="43.47598" lon="1.13397">
        <ele>245.2359467435</ele>
        <time>2019-10-30T14:17:51Z</time>
      </trkpt>
      <trkpt lat="43.47604" lon="1.13401">
        <ele>245.90000989121</ele>
        <time>2019-10-30T14:17:56Z</time>
      </trkpt>
      <trkpt lat="43.47608" lon="1.13403">
        <ele>246.31</ele>
        <time>2019-10-30T14:17:59Z</time>
      </trkpt>
      <trkpt lat="43.4761" lon="1.13404">
        <ele>246.55663621467</ele>
        <time>2019-10-30T14:18:01Z</time>
      </trkpt>
      <trkpt lat="43.47623" lon="1.13414">
        <ele>247.98190343786</ele>
        <time>2019-10-30T14:18:13Z</time>
      </trkpt>
      <trkpt lat="43.4764" lon="1.13427">
        <ele>249.95571107514</ele>
        <time>2019-10-30T14:18:29Z</time>
      </trkpt>
      <trkpt lat="43.47659" lon="1.13442">
        <ele>252.2903727884</ele>
        <time>2019-10-30T14:18:46Z</time>
      </trkpt>
      <trkpt lat="43.47659" lon="1.13442">
        <ele>252.33489262018</ele>
        <time>2019-10-30T14:18:47Z</time>
      </trkpt>
      <trkpt lat="43.47659" lon="1.13442">
        <ele>252.38659293042</ele>
        <time>2019-10-30T14:18:47Z</time>
      </trkpt>
      <trkpt lat="43.4766" lon="1.13442">
        <ele>252.44155585186</ele>
        <time>2019-10-30T14:18:47Z</time>
      </trkpt>
      <trkpt lat="43.47661" lon="1.13442">
        <ele>252.61626747268</ele>
        <time>2019-10-30T14:18:49Z</time>
      </trkpt>
      <trkpt lat="43.47669" lon="1.13447">
        <ele>253.59</ele>
        <time>2019-10-30T14:18:56Z</time>
      </trkpt>
      <trkpt lat="43.47684" lon="1.13458">
        <ele>255.55836502884</ele>
        <time>2019-10-30T14:19:09Z</time>
      </trkpt>
      <trkpt lat="43.47697" lon="1.13467">
        <ele>257.3589720463</ele>
        <time>2019-10-30T14:19:21Z</time>
      </trkpt>
      <trkpt lat="43.47713" lon="1.13479">
        <ele>259.52540508946</ele>
        <time>2019-10-30T14:19:35Z</time>
      </trkpt>
      <trkpt lat="43.47721" lon="1.13484">
        <ele>260.6139249061</ele>
        <time>2019-10-30T14:19:43Z</time>
      </trkpt>
      <trkpt lat="43.47744" lon="1.13494">
        <ele>263.07180810587</ele>
        <time>2019-10-30T14:20:02Z</time>
      </trkpt>
      <trkpt lat="43.47746" lon="1.13495">
        <ele>263.33</ele>
        <time>2019-10-30T14:20:04Z</time>
      </trkpt>
      <trkpt lat="43.47762" lon="1.135">
        <ele>264.65206233684</ele>
        <time>2019-10-30T14:20:17Z</time>
      </trkpt>
      <trkpt lat="43.47766" lon="1.13502">
        <ele>264.95260527755</ele>
        <time>2019-10-30T14:20:21Z</time>
      </trkpt>
      <trkpt lat="43.47778" lon="1.13507">
        <ele>265.69816709665</ele>
        <time>2019-10-30T14:20:30Z</time>
      </trkpt>
      <trkpt lat="43.4779" lon="1.13512">
        <ele>266.31792577237</ele>
        <time>2019-10-30T14:20:41Z</time>
      </trkpt>
      <trkpt lat="43.47792" lon="1.13514">
        <ele>266.44103386687</ele>
        <time>2019-10-30T14:20:43Z</time>
      </trkpt>
      <trkpt lat="43.47794" lon="1.13516">
        <ele>266.51273766478</ele>
        <time>2019-10-30T14:20:44Z</time>
      </trkpt>
      <trkpt lat="43.47794" lon="1.13516">
        <ele>266.5195461198</ele>
        <time>2019-10-30T14:20:44Z</time>
      </trkpt>
      <trkpt lat="43.47794" lon="1.13516">
        <ele>266.52632518337</ele>
        <time>2019-10-30T14:20:45Z</time>
      </trkpt>
      <trkpt lat="43.47794" lon="1.13516">
        <ele>266.55294440167</ele>
        <time>2019-10-30T14:20:45Z</time>
      </trkpt>
      <trkpt lat="43.47796" lon="1.13516">
        <ele>266.59418633358</ele>
        <time>2019-10-30T14:20:46Z</time>
      </trkpt>
      <trkpt lat="43.47797" lon="1.13517">
        <ele>266.66681614634</ele>
        <time>2019-10-30T14:20:48Z</time>
      </trkpt>
      <trkpt lat="43.47809" lon="1.13526">
        <ele>267.03767101712</ele>
        <time>2019-10-30T14:20:58Z</time>
      </trkpt>
      <trkpt lat="43.47822" lon="1.13534">
        <ele>267.28317935441</ele>
        <time>2019-10-30T14:21:10Z</time>
      </trkpt>
      <trkpt lat="43.47826" lon="1.13537">
        <ele>267.32</ele>
        <time>2019-10-30T14:21:13Z</time>
      </trkpt>
      <trkpt lat="43.4783" lon="1.13541">
        <ele>267.34286838139</ele>
        <time>2019-10-30T14:21:17Z</time>
      </trkpt>
      <trkpt lat="43.47836" lon="1.13548">
        <ele>267.34162450263</ele>
        <time>2019-10-30T14:21:24Z</time>
      </trkpt>
      <trkpt lat="43.47848" lon="1.13559">
        <ele>267.23110850827</ele>
        <time>2019-10-30T14:21:35Z</time>
      </trkpt>
      <trkpt lat="43.4786" lon="1.13571">
        <ele>267.02639211442</ele>
        <time>2019-10-30T14:21:47Z</time>
      </trkpt>
      <trkpt lat="43.47866" lon="1.13576">
        <ele>266.88928654537</ele>
        <time>2019-10-30T14:21:52Z</time>
      </trkpt>
      <trkpt lat="43.47871" lon="1.1358">
        <ele>266.75715562484</ele>
        <time>2019-10-30T14:21:58Z</time>
      </trkpt>
      <trkpt lat="43.47886" lon="1.13591">
        <ele>266.39533147516</ele>
        <time>2019-10-30T14:22:11Z</time>
      </trkpt>
      <trkpt lat="43.47891" lon="1.13595">
        <ele>266.26</ele>
        <time>2019-10-30T14:22:15Z</time>
      </trkpt>
      <trkpt lat="43.47899" lon="1.13599">
        <ele>266.0759254633</ele>
        <time>2019-10-30T14:22:22Z</time>
      </trkpt>
      <trkpt lat="43.47913" lon="1.13606">
        <ele>265.75701572982</ele>
        <time>2019-10-30T14:22:34Z</time>
      </trkpt>
      <trkpt lat="43.47932" lon="1.13617">
        <ele>265.28511048827</ele>
        <time>2019-10-30T14:22:51Z</time>
      </trkpt>
      <trkpt lat="43.47938" lon="1.1362">
        <ele>265.13054141758</ele>
        <time>2019-10-30T14:22:56Z</time>
      </trkpt>
      <trkpt lat="43.47955" lon="1.13629">
        <ele>264.63878421835</ele>
        <time>2019-10-30T14:23:11Z</time>
      </trkpt>
      <trkpt lat="43.4797" lon="1.13636">
        <ele>264.16</ele>
        <time>2019-10-30T14:23:23Z</time>
      </trkpt>
      <trkpt lat="43.47982" lon="1.13642">
        <ele>263.72828852155</ele>
        <time>2019-10-30T14:23:33Z</time>
      </trkpt>
      <trkpt lat="43.48027" lon="1.13666">
        <ele>261.94079601579</ele>
        <time>2019-10-30T14:24:12Z</time>
      </trkpt>
      <trkpt lat="43.48033" lon="1.13669">
        <ele>261.74043593919</ele>
        <time>2019-10-30T14:24:17Z</time>
      </trkpt>
      <trkpt lat="43.48036" lon="1.1367">
        <ele>261.6366451741</ele>
        <time>2019-10-30T14:24:19Z</time>
      </trkpt>
      <trkpt lat="43.48038" lon="1.13671">
        <ele>261.57942818704</ele>
        <time>2019-10-30T14:24:21Z</time>
      </trkpt>
      <trkpt lat="43.48039" lon="1.13671">
        <ele>261.53019726099</ele>
        <time>2019-10-30T14:24:22Z</time>
      </trkpt>
      <trkpt lat="43.48043" lon="1.1367">
        <ele>261.40762928703</ele>
        <time>2019-10-30T14:24:25Z</time>
      </trkpt>
      <trkpt lat="43.48045" lon="1.1367">
        <ele>261.34766363611</ele>
        <time>2019-10-30T14:24:27Z</time>
      </trkpt>
      <trkpt lat="43.48048" lon="1.13672">
        <ele>261.26</ele>
        <time>2019-10-30T14:24:30Z</time>
      </trkpt>
      <trkpt lat="43.48054" lon="1.13676">
        <ele>261.10348735346</ele>
        <time>2019-10-30T14:24:35Z</time>
      </trkpt>
      <trkpt lat="43.48056" lon="1.13677">
        <ele>261.05145954179</ele>
        <time>2019-10-30T14:24:36Z</time>
      </trkpt>
      <trkpt lat="43.48061" lon="1.13679">
        <ele>260.95143603921</ele>
        <time>2019-10-30T14:24:40Z</time>
      </trkpt>
      <trkpt lat="43.48065" lon="1.1368">
        <ele>260.86039005706</ele>
        <time>2019-10-30T14:24:44Z</time>
      </trkpt>
      <trkpt lat="43.48071" lon="1.13683">
        <ele>260.76763449112</ele>
        <time>2019-10-30T14:24:49Z</time>
      </trkpt>
      <trkpt lat="43.48075" lon="1.13684">
        <ele>260.72441265391</ele>
        <time>2019-10-30T14:24:52Z</time>
      </trkpt>
      <trkpt lat="43.48081" lon="1.13687">
        <ele>260.67293623212</ele>
        <time>2019-10-30T14:24:57Z</time>
      </trkpt>
      <trkpt lat="43.48095" lon="1.13696">
        <ele>260.66934935719</ele>
        <time>2019-10-30T14:25:09Z</time>
      </trkpt>
      <trkpt lat="43.48114" lon="1.13707">
        <ele>261</ele>
        <time>2019-10-30T14:25:27Z</time>
      </trkpt>
      <trkpt lat="43.48127" lon="1.13713">
        <ele>261.42419449554</ele>
        <time>2019-10-30T14:25:37Z</time>
      </trkpt>
      <trkpt lat="43.48145" lon="1.13724">
        <ele>262.29523509892</ele>
        <time>2019-10-30T14:25:53Z</time>
      </trkpt>
      <trkpt lat="43.48149" lon="1.13726">
        <ele>262.49188872694</ele>
        <time>2019-10-30T14:25:56Z</time>
      </trkpt>
      <trkpt lat="43.4817" lon="1.13736">
        <ele>263.66069111709</ele>
        <time>2019-10-30T14:26:14Z</time>
      </trkpt>
      <trkpt lat="43.48188" lon="1.13746">
        <ele>264.65045524148</ele>
        <time>2019-10-30T14:26:29Z</time>
      </trkpt>
      <trkpt lat="43.48197" lon="1.1375">
        <ele>265.1</ele>
        <time>2019-10-30T14:26:37Z</time>
      </trkpt>
      <trkpt lat="43.48224" lon="1.13761">
        <ele>266.15054037455</ele>
        <time>2019-10-30T14:27:00Z</time>
      </trkpt>
      <trkpt lat="43.48267" lon="1.13781">
        <ele>267</ele>
        <time>2019-10-30T14:27:36Z</time>
      </trkpt>
      <trkpt lat="43.48279" lon="1.13785">
        <ele>267.0855377378</ele>
        <time>2019-10-30T14:27:46Z</time>
      </trkpt>
      <trkpt lat="43.48309" lon="1.13794">
        <ele>267.12026744232</ele>
        <time>2019-10-30T14:28:11Z</time>
      </trkpt>
      <trkpt lat="43.48315" lon="1.13797">
        <ele>267.10642480188</ele>
        <time>2019-10-30T14:28:16Z</time>
      </trkpt>
      <trkpt lat="43.48321" lon="1.138">
        <ele>267.08926036562</ele>
        <time>2019-10-30T14:28:21Z</time>
      </trkpt>
      <trkpt lat="43.48343" lon="1.13811">
        <ele>267.01932560704</ele>
        <time>2019-10-30T14:28:40Z</time>
      </trkpt>
      <trkpt lat="43.48352" lon="1.13816">
        <ele>267</ele>
        <time>2019-10-30T14:28:48Z</time>
      </trkpt>
      <trkpt lat="43.48359" lon="1.1382">
        <ele>266.99355660578</ele>
        <time>2019-10-30T14:28:53Z</time>
      </trkpt>
      <trkpt lat="43.48369" lon="1.13827">
        <ele>266.99309522979</ele>
        <time>2019-10-30T14:29:03Z</time>
      </trkpt>
      <trkpt lat="43.4838" lon="1.13835">
        <ele>266.99926208604</ele>
        <time>2019-10-30T14:29:12Z</time>
      </trkpt>
      <trkpt lat="43.48386" lon="1.13841">
        <ele>267.00277465532</ele>
        <time>2019-10-30T14:29:19Z</time>
      </trkpt>
      <trkpt lat="43.48395" lon="1.1385">
        <ele>267.00115704355</ele>
        <time>2019-10-30T14:29:27Z</time>
      </trkpt>
      <trkpt lat="43.48397" lon="1.13852">
        <ele>266.99925757185</ele>
        <time>2019-10-30T14:29:29Z</time>
      </trkpt>
      <trkpt lat="43.484" lon="1.13855">
        <ele>266.99487663471</ele>
        <time>2019-10-30T14:29:32Z</time>
      </trkpt>
      <trkpt lat="43.48402" lon="1.1386">
        <ele>266.98768922067</ele>
        <time>2019-10-30T14:29:35Z</time>
      </trkpt>
      <trkpt lat="43.48404" lon="1.13863">
        <ele>266.98091009432</ele>
        <time>2019-10-30T14:29:38Z</time>
      </trkpt>
      <trkpt lat="43.48404" lon="1.13865">
        <ele>266.97682541542</ele>
        <time>2019-10-30T14:29:39Z</time>
      </trkpt>
      <trkpt lat="43.48405" lon="1.13871">
        <ele>266.96262873396</ele>
        <time>2019-10-30T14:29:42Z</time>
      </trkpt>
      <trkpt lat="43.48405" lon="1.13875">
        <ele>266.9515372662</ele>
        <time>2019-10-30T14:29:45Z</time>
      </trkpt>
      <trkpt lat="43.48405" lon="1.1388">
        <ele>266.93188840038</ele>
        <time>2019-10-30T14:29:48Z</time>
      </trkpt>
      <trkpt lat="43.48403" lon="1.1389">
        <ele>266.89</ele>
        <time>2019-10-30T14:29:53Z</time>
      </trkpt>
      <trkpt lat="43.48399" lon="1.13907">
        <ele>266.77268548914</ele>
        <time>2019-10-30T14:30:04Z</time>
      </trkpt>
      <trkpt lat="43.48399" lon="1.13913">
        <ele>266.73054449882</ele>
        <time>2019-10-30T14:30:07Z</time>
      </trkpt>
      <trkpt lat="43.48397" lon="1.1393">
        <ele>266.57754182841</ele>
        <time>2019-10-30T14:30:18Z</time>
      </trkpt>
      <trkpt lat="43.48394" lon="1.13949">
        <ele>266.4059372449</ele>
        <time>2019-10-30T14:30:29Z</time>
      </trkpt>
      <trkpt lat="43.48393" lon="1.13957">
        <ele>266.32482416809</ele>
        <time>2019-10-30T14:30:34Z</time>
      </trkpt>
      <trkpt lat="43.48393" lon="1.13975">
        <ele>266.16962987379</ele>
        <time>2019-10-30T14:30:44Z</time>
      </trkpt>
      <trkpt lat="43.48393" lon="1.13983">
        <ele>266.11380893186</ele>
        <time>2019-10-30T14:30:49Z</time>
      </trkpt>
      <trkpt lat="43.4839" lon="1.13999">
        <ele>266.01</ele>
        <time>2019-10-30T14:30:58Z</time>
      </trkpt>
      <trkpt lat="43.4839" lon="1.14008">
        <ele>265.96892213048</ele>
        <time>2019-10-30T14:31:03Z</time>
      </trkpt>
      <trkpt lat="43.4839" lon="1.14015">
        <ele>265.94392768628</ele>
        <time>2019-10-30T14:31:07Z</time>
      </trkpt>
      <trkpt lat="43.48391" lon="1.14021">
        <ele>265.92462663812</ele>
        <time>2019-10-30T14:31:11Z</time>
      </trkpt>
      <trkpt lat="43.48394" lon="1.14027">
        <ele>265.91024183089</ele>
        <time>2019-10-30T14:31:15Z</time>
      </trkpt>
      <trkpt lat="43.48395" lon="1.14029">
        <ele>265.90436399943</ele>
        <time>2019-10-30T14:31:17Z</time>
      </trkpt>
      <trkpt lat="43.48397" lon="1.14031">
        <ele>265.89929728898</ele>
        <time>2019-10-30T14:31:19Z</time>
      </trkpt>
      <trkpt lat="43.48401" lon="1.14033">
        <ele>265.89267037118</ele>
        <time>2019-10-30T14:31:22Z</time>
      </trkpt>
      <trkpt lat="43.48405" lon="1.14034">
        <ele>265.88682406514</ele>
        <time>2019-10-30T14:31:25Z</time>
      </trkpt>
      <trkpt lat="43.48421" lon="1.14035">
        <ele>265.869985629</ele>
        <time>2019-10-30T14:31:38Z</time>
      </trkpt>
      <trkpt lat="43.48426" lon="1.14036">
        <ele>265.86424977447</ele>
        <time>2019-10-30T14:31:42Z</time>
      </trkpt>
      <trkpt lat="43.48452" lon="1.14041">
        <ele>265.79</ele>
        <time>2019-10-30T14:32:03Z</time>
      </trkpt>
      <trkpt lat="43.48464" lon="1.14043">
        <ele>265.71551077643</ele>
        <time>2019-10-30T14:32:13Z</time>
      </trkpt>
      <trkpt lat="43.48474" lon="1.14044">
        <ele>265.62865587307</ele>
        <time>2019-10-30T14:32:21Z</time>
      </trkpt>
      <trkpt lat="43.48517" lon="1.14045">
        <ele>265.16</ele>
        <time>2019-10-30T14:32:56Z</time>
      </trkpt>
      <trkpt lat="43.48554" lon="1.14046">
        <ele>264.79143027177</ele>
        <time>2019-10-30T14:33:25Z</time>
      </trkpt>
      <trkpt lat="43.48561" lon="1.14046">
        <ele>264.74112013849</ele>
        <time>2019-10-30T14:33:31Z</time>
      </trkpt>
      <trkpt lat="43.48578" lon="1.14048">
        <ele>264.63630910826</ele>
        <time>2019-10-30T14:33:45Z</time>
      </trkpt>
      <trkpt lat="43.48587" lon="1.14048">
        <ele>264.60555136648</ele>
        <time>2019-10-30T14:33:51Z</time>
      </trkpt>
      <trkpt lat="43.48592" lon="1.14048">
        <ele>264.59171863045</ele>
        <time>2019-10-30T14:33:56Z</time>
      </trkpt>
      <trkpt lat="43.48601" lon="1.14047">
        <ele>264.58330381109</ele>
        <time>2019-10-30T14:34:03Z</time>
      </trkpt>
      <trkpt lat="43.48608" lon="1.14047">
        <ele>264.59</ele>
        <time>2019-10-30T14:34:09Z</time>
      </trkpt>
      <trkpt lat="43.48632" lon="1.14048">
        <ele>264.6762002073</ele>
        <time>2019-10-30T14:34:27Z</time>
      </trkpt>
      <trkpt lat="43.48665" lon="1.14048">
        <ele>264.77663377104</ele>
        <time>2019-10-30T14:34:53Z</time>
      </trkpt>
      <trkpt lat="43.48671" lon="1.14048">
        <ele>264.76771676867</ele>
        <time>2019-10-30T14:34:58Z</time>
      </trkpt>
      <trkpt lat="43.48682" lon="1.14047">
        <ele>264.71290581819</ele>
        <time>2019-10-30T14:35:07Z</time>
      </trkpt>
      <trkpt lat="43.48686" lon="1.14048">
        <ele>264.67177433431</ele>
        <time>2019-10-30T14:35:11Z</time>
      </trkpt>
      <trkpt lat="43.48687" lon="1.14048">
        <ele>264.66009569858</ele>
        <time>2019-10-30T14:35:12Z</time>
      </trkpt>
      <trkpt lat="43.48689" lon="1.1405">
        <ele>264.63530744532</ele>
        <time>2019-10-30T14:35:14Z</time>
      </trkpt>
      <trkpt lat="43.48692" lon="1.14053">
        <ele>264.59</ele>
        <time>2019-10-30T14:35:16Z</time>
      </trkpt>
      <trkpt lat="43.48693" lon="1.14056">
        <ele>264.55082494205</ele>
        <time>2019-10-30T14:35:19Z</time>
      </trkpt>
      <trkpt lat="43.487" lon="1.14075">
        <ele>264.25509557154</ele>
        <time>2019-10-30T14:35:31Z</time>
      </trkpt>
      <trkpt lat="43.48704" lon="1.1409">
        <ele>263.94080506756</ele>
        <time>2019-10-30T14:35:40Z</time>
      </trkpt>
      <trkpt lat="43.48707" lon="1.14097">
        <ele>263.75278015372</ele>
        <time>2019-10-30T14:35:45Z</time>
      </trkpt>
      <trkpt lat="43.48714" lon="1.14113">
        <ele>263.2848385832</ele>
        <time>2019-10-30T14:35:55Z</time>
      </trkpt>
      <trkpt lat="43.48716" lon="1.1412">
        <ele>263.05847439685</ele>
        <time>2019-10-30T14:36:00Z</time>
      </trkpt>
      <trkpt lat="43.48717" lon="1.14124">
        <ele>262.96555828749</ele>
        <time>2019-10-30T14:36:02Z</time>
      </trkpt>
      <trkpt lat="43.48717" lon="1.14133">
        <ele>262.68150991262</ele>
        <time>2019-10-30T14:36:08Z</time>
      </trkpt>
      <trkpt lat="43.48717" lon="1.14138">
        <ele>262.53268351347</ele>
        <time>2019-10-30T14:36:10Z</time>
      </trkpt>
      <trkpt lat="43.48717" lon="1.14142">
        <ele>262.38248203597</ele>
        <time>2019-10-30T14:36:13Z</time>
      </trkpt>
      <trkpt lat="43.48715" lon="1.14152">
        <ele>262.07</ele>
        <time>2019-10-30T14:36:19Z</time>
      </trkpt>
      <trkpt lat="43.48712" lon="1.14164">
        <ele>261.64624535531</ele>
        <time>2019-10-30T14:36:26Z</time>
      </trkpt>
      <trkpt lat="43.48707" lon="1.14177">
        <ele>261.14423283278</ele>
        <time>2019-10-30T14:36:35Z</time>
      </trkpt>
      <trkpt lat="43.48702" lon="1.14195">
        <ele>260.56356289372</ele>
        <time>2019-10-30T14:36:46Z</time>
      </trkpt>
      <trkpt lat="43.48695" lon="1.14216">
        <ele>260.03271457803</ele>
        <time>2019-10-30T14:37:00Z</time>
      </trkpt>
      <trkpt lat="43.48694" lon="1.1422">
        <ele>259.95801750611</ele>
        <time>2019-10-30T14:37:02Z</time>
      </trkpt>
      <trkpt lat="43.48693" lon="1.14225">
        <ele>259.89497343778</ele>
        <time>2019-10-30T14:37:05Z</time>
      </trkpt>
      <trkpt lat="43.48692" lon="1.14233">
        <ele>259.82043187897</ele>
        <time>2019-10-30T14:37:10Z</time>
      </trkpt>
      <trkpt lat="43.48691" lon="1.14251">
        <ele>259.8226573276</ele>
        <time>2019-10-30T14:37:20Z</time>
      </trkpt>
      <trkpt lat="43.4869" lon="1.14263">
        <ele>259.98</ele>
        <time>2019-10-30T14:37:27Z</time>
      </trkpt>
      <trkpt lat="43.48691" lon="1.14279">
        <ele>260.4019821875</ele>
        <time>2019-10-30T14:37:37Z</time>
      </trkpt>
      <trkpt lat="43.48691" lon="1.14289">
        <ele>260.7372253798</ele>
        <time>2019-10-30T14:37:43Z</time>
      </trkpt>
      <trkpt lat="43.4869" lon="1.14308">
        <ele>261.50394523214</ele>
        <time>2019-10-30T14:37:54Z</time>
      </trkpt>
      <trkpt lat="43.48689" lon="1.14323">
        <ele>262.14244979998</ele>
        <time>2019-10-30T14:38:02Z</time>
      </trkpt>
      <trkpt lat="43.48689" lon="1.14339">
        <ele>262.76463201392</ele>
        <time>2019-10-30T14:38:12Z</time>
      </trkpt>
      <trkpt lat="43.4869" lon="1.14359">
        <ele>263.35790608039</ele>
        <time>2019-10-30T14:38:24Z</time>
      </trkpt>
      <trkpt lat="43.4869" lon="1.14368">
        <ele>263.49989534286</ele>
        <time>2019-10-30T14:38:29Z</time>
      </trkpt>
      <trkpt lat="43.4869" lon="1.14372">
        <ele>263.54</ele>
        <time>2019-10-30T14:38:31Z</time>
      </trkpt>
      <trkpt lat="43.48691" lon="1.14376">
        <ele>263.55747730109</ele>
        <time>2019-10-30T14:38:34Z</time>
      </trkpt>
      <trkpt lat="43.48693" lon="1.14379">
        <ele>263.55541147115</ele>
        <time>2019-10-30T14:38:36Z</time>
      </trkpt>
      <trkpt lat="43.48695" lon="1.14382">
        <ele>263.53539562842</ele>
        <time>2019-10-30T14:38:38Z</time>
      </trkpt>
      <trkpt lat="43.48697" lon="1.14383">
        <ele>263.51098653202</ele>
        <time>2019-10-30T14:38:40Z</time>
      </trkpt>
      <trkpt lat="43.487" lon="1.14384">
        <ele>263.46279129434</ele>
        <time>2019-10-30T14:38:42Z</time>
      </trkpt>
      <trkpt lat="43.48703" lon="1.14384">
        <ele>263.39576792201</ele>
        <time>2019-10-30T14:38:44Z</time>
      </trkpt>
      <trkpt lat="43.48706" lon="1.14383">
        <ele>263.30721561949</ele>
        <time>2019-10-30T14:38:47Z</time>
      </trkpt>
      <trkpt lat="43.48728" lon="1.14373">
        <ele>262.08514627741</ele>
        <time>2019-10-30T14:39:05Z</time>
      </trkpt>
      <trkpt lat="43.4874" lon="1.14367">
        <ele>260.95854020717</ele>
        <time>2019-10-30T14:39:16Z</time>
      </trkpt>
      <trkpt lat="43.48744" lon="1.14365">
        <ele>260.59307900309</ele>
        <time>2019-10-30T14:39:19Z</time>
      </trkpt>
      <trkpt lat="43.48749" lon="1.14363">
        <ele>259.9983660168</ele>
        <time>2019-10-30T14:39:24Z</time>
      </trkpt>
      <trkpt lat="43.48753" lon="1.14362">
        <ele>259.56701637946</ele>
        <time>2019-10-30T14:39:27Z</time>
      </trkpt>
      <trkpt lat="43.48758" lon="1.14362">
        <ele>258.98</ele>
        <time>2019-10-30T14:39:31Z</time>
      </trkpt>
      <trkpt lat="43.48772" lon="1.14362">
        <ele>257.28340839938</ele>
        <time>2019-10-30T14:39:42Z</time>
      </trkpt>
      <trkpt lat="43.48779" lon="1.14362">
        <ele>256.31357932714</ele>
        <time>2019-10-30T14:39:48Z</time>
      </trkpt>
      <trkpt lat="43.48784" lon="1.14363">
        <ele>255.60451636938</ele>
        <time>2019-10-30T14:39:52Z</time>
      </trkpt>
      <trkpt lat="43.48789" lon="1.14364">
        <ele>255.01551076794</ele>
        <time>2019-10-30T14:39:55Z</time>
      </trkpt>
      <trkpt lat="43.48797" lon="1.14367">
        <ele>253.77291560017</ele>
        <time>2019-10-30T14:40:03Z</time>
      </trkpt>
      <trkpt lat="43.48801" lon="1.14368">
        <ele>253.3105230605</ele>
        <time>2019-10-30T14:40:05Z</time>
      </trkpt>
      <trkpt lat="43.48811" lon="1.14369">
        <ele>251.94072405035</ele>
        <time>2019-10-30T14:40:13Z</time>
      </trkpt>
      <trkpt lat="43.48815" lon="1.1437">
        <ele>251.31799478234</ele>
        <time>2019-10-30T14:40:17Z</time>
      </trkpt>
      <trkpt lat="43.48826" lon="1.14374">
        <ele>249.89540532554</ele>
        <time>2019-10-30T14:40:26Z</time>
      </trkpt>
      <trkpt lat="43.48832" lon="1.14375">
        <ele>249.26268167215</ele>
        <time>2019-10-30T14:40:31Z</time>
      </trkpt>
      <trkpt lat="43.4884" lon="1.14378">
        <ele>248.41075248058</ele>
        <time>2019-10-30T14:40:37Z</time>
      </trkpt>
      <trkpt lat="43.48842" lon="1.14379">
        <ele>248.19</ele>
        <time>2019-10-30T14:40:39Z</time>
      </trkpt>
      <trkpt lat="43.48852" lon="1.14379">
        <ele>247.29127461744</ele>
        <time>2019-10-30T14:40:47Z</time>
      </trkpt>
      <trkpt lat="43.4886" lon="1.14379">
        <ele>246.70899180609</ele>
        <time>2019-10-30T14:40:53Z</time>
      </trkpt>
      <trkpt lat="43.48864" lon="1.1438">
        <ele>246.42244001711</ele>
        <time>2019-10-30T14:40:57Z</time>
      </trkpt>
      <trkpt lat="43.48883" lon="1.14384">
        <ele>245.51943736079</ele>
        <time>2019-10-30T14:41:13Z</time>
      </trkpt>
      <trkpt lat="43.48891" lon="1.14385">
        <ele>245.32803557529</ele>
        <time>2019-10-30T14:41:19Z</time>
      </trkpt>
      <trkpt lat="43.48899" lon="1.14386">
        <ele>245.22034158618</ele>
        <time>2019-10-30T14:41:25Z</time>
      </trkpt>
      <trkpt lat="43.48908" lon="1.14386">
        <ele>245.20570651358</ele>
        <time>2019-10-30T14:41:32Z</time>
      </trkpt>
      <trkpt lat="43.48912" lon="1.14386">
        <ele>245.24401499187</ele>
        <time>2019-10-30T14:41:36Z</time>
      </trkpt>
      <trkpt lat="43.48921" lon="1.14388">
        <ele>245.41007850191</ele>
        <time>2019-10-30T14:41:43Z</time>
      </trkpt>
      <trkpt lat="43.48927" lon="1.14388">
        <ele>245.57</ele>
        <time>2019-10-30T14:41:48Z</time>
      </trkpt>
      <trkpt lat="43.48931" lon="1.14388">
        <ele>245.72588070233</ele>
        <time>2019-10-30T14:41:51Z</time>
      </trkpt>
      <trkpt lat="43.48941" lon="1.14386">
        <ele>246.17725687501</ele>
        <time>2019-10-30T14:41:59Z</time>
      </trkpt>
      <trkpt lat="43.48944" lon="1.14386">
        <ele>246.30178578983</ele>
        <time>2019-10-30T14:42:01Z</time>
      </trkpt>
      <trkpt lat="43.48946" lon="1.14386">
        <ele>246.44314915112</ele>
        <time>2019-10-30T14:42:03Z</time>
      </trkpt>
      <trkpt lat="43.48954" lon="1.14389">
        <ele>246.8936174523</ele>
        <time>2019-10-30T14:42:09Z</time>
      </trkpt>
      <trkpt lat="43.4896" lon="1.1439">
        <ele>247.33807192898</ele>
        <time>2019-10-30T14:42:15Z</time>
      </trkpt>
      <trkpt lat="43.48964" lon="1.14392">
        <ele>247.58894000378</ele>
        <time>2019-10-30T14:42:18Z</time>
      </trkpt>
      <trkpt lat="43.48966" lon="1.14394">
        <ele>247.80617599985</ele>
        <time>2019-10-30T14:42:20Z</time>
      </trkpt>
      <trkpt lat="43.48966" lon="1.14394">
        <ele>247.81667436158</ele>
        <time>2019-10-30T14:42:20Z</time>
      </trkpt>
      <trkpt lat="43.48966" lon="1.14394">
        <ele>247.83198947757</ele>
        <time>2019-10-30T14:42:21Z</time>
      </trkpt>
      <trkpt lat="43.48977" lon="1.14403">
        <ele>248.77607898672</ele>
        <time>2019-10-30T14:42:31Z</time>
      </trkpt>
      <trkpt lat="43.48981" lon="1.14407">
        <ele>249.16619269598</ele>
        <time>2019-10-30T14:42:35Z</time>
      </trkpt>
      <trkpt lat="43.48994" lon="1.14421">
        <ele>250.48</ele>
        <time>2019-10-30T14:42:48Z</time>
      </trkpt>
      <trkpt lat="43.49006" lon="1.14431">
        <ele>251.5349012924</ele>
        <time>2019-10-30T14:42:59Z</time>
      </trkpt>
      <trkpt lat="43.4902" lon="1.14445">
        <ele>252.89945827528</ele>
        <time>2019-10-30T14:43:12Z</time>
      </trkpt>
      <trkpt lat="43.49024" lon="1.14448">
        <ele>253.26619812705</ele>
        <time>2019-10-30T14:43:16Z</time>
      </trkpt>
      <trkpt lat="43.49026" lon="1.14449">
        <ele>253.46618855295</ele>
        <time>2019-10-30T14:43:18Z</time>
      </trkpt>
      <trkpt lat="43.49028" lon="1.1445">
        <ele>253.66049515348</ele>
        <time>2019-10-30T14:43:20Z</time>
      </trkpt>
      <trkpt lat="43.49031" lon="1.1445">
        <ele>253.86013373319</ele>
        <time>2019-10-30T14:43:22Z</time>
      </trkpt>
      <trkpt lat="43.49034" lon="1.1445">
        <ele>254.13556027908</ele>
        <time>2019-10-30T14:43:25Z</time>
      </trkpt>
      <trkpt lat="43.49041" lon="1.1445">
        <ele>254.72523082212</ele>
        <time>2019-10-30T14:43:30Z</time>
      </trkpt>
      <trkpt lat="43.49048" lon="1.1445">
        <ele>255.33393075296</ele>
        <time>2019-10-30T14:43:36Z</time>
      </trkpt>
      <trkpt lat="43.49053" lon="1.1445">
        <ele>255.78</ele>
        <time>2019-10-30T14:43:40Z</time>
      </trkpt>
      <trkpt lat="43.4912" lon="1.14457">
        <ele>262.08</ele>
        <time>2019-10-30T14:44:34Z</time>
      </trkpt>
      <trkpt lat="43.49151" lon="1.14512">
        <ele>265.02381499543</ele>
        <time>2019-10-30T14:45:14Z</time>
      </trkpt>
      <trkpt lat="43.49179" lon="1.14518">
        <ele>266.08843878783</ele>
        <time>2019-10-30T14:45:37Z</time>
      </trkpt>
      <trkpt lat="43.49199" lon="1.14507">
        <ele>262.1</ele>
        <time>2019-10-30T14:45:54Z</time>
      </trkpt>
    </trkseg>
  </trk>
</gpx>